Wetterdaten: Samstag, 06.01.2018
Datum Zeit Temp. Aussen Temp. o. S. +5cm Feuchte Auss BlattFeu 1 Luftdruck Regen Sonnenschein Regendauer Solar Windben Empfang
06.01.2018 00:00 5,4 C 4,4 C 3,3 C 90 % 0 lf 1001,0 hPa 0,0 l/m 0 min 0 min 0 W/m 11,3 km/h (2 Bft) 97,87 %
06.01.2018 00:02 5,4 C 5,0 C 3,3 C 90 % 0 lf 1001,1 hPa 0,0 l/m 0 min 0 min 0 W/m 13,5 km/h (3 Bft) 94,59 %
06.01.2018 00:04 5,4 C 5,0 C 3,3 C 90 % 0 lf 1001,2 hPa 0,0 l/m 0 min 0 min 0 W/m 13,5 km/h (3 Bft) 100,00 %
06.01.2018 00:08 5,3 C 5,0 C 3,3 C 90 % 0 lf 1001,2 hPa 0,0 l/m 0 min 0 min 0 W/m 20,3 km/h (4 Bft) 100,00 %
06.01.2018 00:10 5,3 C 5,0 C 3,3 C 90 % 0 lf 1001,2 hPa 0,0 l/m 0 min 0 min 0 W/m 15,8 km/h (3 Bft) 100,00 %
06.01.2018 00:12 5,3 C 5,0 C 3,3 C 90 % 0 lf 1001,2 hPa 0,0 l/m 0 min 0 min 0 W/m 15,8 km/h (3 Bft) 100,00 %
06.01.2018 00:14 5,3 C 5,0 C 3,3 C 91 % 0 lf 1001,3 hPa 0,0 l/m 0 min 0 min 0 W/m 13,5 km/h (3 Bft) 100,00 %
06.01.2018 00:16 5,3 C 5,0 C 3,3 C 91 % 0 lf 1001,3 hPa 0,0 l/m 0 min 0 min 0 W/m 15,8 km/h (3 Bft) 97,87 %
06.01.2018 00:18 5,3 C 5,0 C 3,3 C 91 % 0 lf 1001,5 hPa 0,0 l/m 0 min 0 min 0 W/m 15,8 km/h (3 Bft) 96,43 %
06.01.2018 00:20 5,3 C 5,0 C 3,3 C 91 % 0 lf 1001,4 hPa 0,0 l/m 0 min 0 min 0 W/m 15,8 km/h (3 Bft) 100,00 %
06.01.2018 00:22 5,3 C 5,0 C 3,3 C 91 % 0 lf 1001,3 hPa 0,0 l/m 0 min 0 min 0 W/m 18,0 km/h (3 Bft) 93,48 %
06.01.2018 00:24 5,3 C 5,0 C 3,3 C 91 % 0 lf 1001,2 hPa 0,0 l/m 0 min 0 min 0 W/m 20,3 km/h (4 Bft) 97,87 %
06.01.2018 00:26 5,3 C 5,0 C 3,3 C 91 % 0 lf 1001,3 hPa 0,0 l/m 0 min 0 min 0 W/m 11,3 km/h (2 Bft) 95,74 %
06.01.2018 00:28 5,3 C 5,0 C 3,3 C 91 % 0 lf 1001,3 hPa 0,0 l/m 0 min 0 min 0 W/m 15,8 km/h (3 Bft) 97,87 %
06.01.2018 00:30 5,3 C 5,0 C 3,3 C 91 % 0 lf 1001,2 hPa 0,0 l/m 0 min 0 min 0 W/m 11,3 km/h (2 Bft) 95,74 %
06.01.2018 00:32 5,3 C 5,0 C 2,8 C 91 % 0 lf 1001,2 hPa 0,0 l/m 0 min 0 min 0 W/m 15,8 km/h (3 Bft) 95,74 %
06.01.2018 00:34 5,3 C 5,0 C 2,8 C 91 % 0 lf 1001,3 hPa 0,0 l/m 0 min 0 min 0 W/m 15,8 km/h (3 Bft) 93,48 %
06.01.2018 00:36 5,3 C 5,0 C 2,8 C 91 % 0 lf 1001,4 hPa 0,0 l/m 0 min 0 min 0 W/m 11,3 km/h (2 Bft) 91,49 %
06.01.2018 00:38 5,3 C 5,0 C 2,8 C 91 % 0 lf 1001,3 hPa 0,0 l/m 0 min 0 min 0 W/m 13,5 km/h (3 Bft) 93,62 %
06.01.2018 00:40 5,3 C 5,0 C 2,8 C 91 % 0 lf 1001,4 hPa 0,0 l/m 0 min 0 min 0 W/m 15,8 km/h (3 Bft) 95,74 %
06.01.2018 00:42 5,3 C 5,0 C 2,8 C 91 % 0 lf 1001,3 hPa 0,0 l/m 0 min 0 min 0 W/m 11,3 km/h (2 Bft) 95,74 %
06.01.2018 00:44 5,3 C 5,0 C 2,8 C 91 % 0 lf 1001,4 hPa 0,0 l/m 0 min 0 min 0 W/m 9,0 km/h (2 Bft) 93,62 %
06.01.2018 00:46 5,3 C 4,4 C 2,8 C 91 % 0 lf 1001,4 hPa 0,0 l/m 0 min 0 min 0 W/m 15,8 km/h (3 Bft) 93,48 %
06.01.2018 00:48 5,2 C 4,4 C 2,8 C 91 % 0 lf 1001,5 hPa 0,0 l/m 0 min 0 min 0 W/m 11,3 km/h (2 Bft) 95,74 %
06.01.2018 00:50 5,2 C 5,0 C 2,8 C 91 % 0 lf 1001,4 hPa 0,0 l/m 0 min 0 min 0 W/m 13,5 km/h (3 Bft) 93,62 %
06.01.2018 00:52 5,2 C 4,4 C 2,8 C 91 % 0 lf 1001,5 hPa 0,0 l/m 0 min 0 min 0 W/m 6,8 km/h (2 Bft) 95,74 %
06.01.2018 00:54 5,2 C 4,4 C 2,2 C 91 % 0 lf 1001,5 hPa 0,0 l/m 0 min 0 min 0 W/m 9,0 km/h (2 Bft) 93,62 %
06.01.2018 00:56 5,2 C 4,4 C 2,2 C 91 % 0 lf 1001,5 hPa 0,0 l/m 0 min 0 min 0 W/m 11,3 km/h (2 Bft) 89,36 %
06.01.2018 00:58 5,2 C 4,4 C 2,2 C 91 % 0 lf 1001,6 hPa 0,0 l/m 0 min 0 min 0 W/m 6,8 km/h (2 Bft) 95,65 %
06.01.2018 01:00 5,2 C 4,4 C 2,2 C 91 % 0 lf 1001,6 hPa 0,0 l/m 0 min 0 min 0 W/m 6,8 km/h (2 Bft) 93,62 %
06.01.2018 01:02 5,2 C 4,4 C 2,2 C 91 % 0 lf 1001,6 hPa 0,0 l/m 0 min 0 min 0 W/m 11,3 km/h (2 Bft) 95,74 %
06.01.2018 01:04 5,2 C 4,4 C 2,2 C 91 % 0 lf 1001,6 hPa 0,0 l/m 0 min 0 min 0 W/m 6,8 km/h (2 Bft) 93,62 %
06.01.2018 01:06 5,1 C 4,4 C 2,2 C 91 % 0 lf 1001,6 hPa 0,0 l/m 0 min 0 min 0 W/m 9,0 km/h (2 Bft) 95,74 %
06.01.2018 01:08 5,1 C 4,4 C 2,2 C 91 % 0 lf 1001,6 hPa 0,0 l/m 0 min 0 min 0 W/m 11,3 km/h (2 Bft) 95,74 %
06.01.2018 01:10 5,1 C 4,4 C 2,2 C 91 % 0 lf 1001,6 hPa 0,0 l/m 0 min 0 min 0 W/m 11,3 km/h (2 Bft) 95,65 %
06.01.2018 01:12 5,1 C 4,4 C 2,2 C 91 % 0 lf 1001,6 hPa 0,0 l/m 0 min 0 min 0 W/m 11,3 km/h (2 Bft) 93,62 %
06.01.2018 01:14 5,1 C 4,4 C 2,2 C 91 % 0 lf 1001,6 hPa 0,0 l/m 0 min 0 min 0 W/m 9,0 km/h (2 Bft) 93,62 %
06.01.2018 01:16 5,1 C 4,4 C 2,2 C 91 % 0 lf 1001,6 hPa 0,0 l/m 0 min 0 min 0 W/m 11,3 km/h (2 Bft) 95,74 %
06.01.2018 01:18 5,0 C 4,4 C 2,8 C 91 % 0 lf 1001,7 hPa 0,0 l/m 0 min 0 min 0 W/m 11,3 km/h (2 Bft) 95,74 %
06.01.2018 01:20 5,1 C 4,4 C 2,8 C 91 % 0 lf 1001,6 hPa 0,0 l/m 0 min 0 min 0 W/m 20,3 km/h (4 Bft) 95,74 %
06.01.2018 01:22 5,0 C 4,4 C 2,8 C 91 % 0 lf 1001,7 hPa 0,0 l/m 0 min 0 min 0 W/m 18,0 km/h (3 Bft) 93,48 %
06.01.2018 01:24 5,0 C 4,4 C 2,8 C 91 % 0 lf 1001,7 hPa 0,0 l/m 0 min 0 min 0 W/m 15,8 km/h (3 Bft) 91,49 %
06.01.2018 01:26 5,0 C 4,4 C 2,8 C 91 % 0 lf 1001,6 hPa 0,0 l/m 0 min 0 min 0 W/m 13,5 km/h (3 Bft) 91,49 %
06.01.2018 01:28 5,0 C 5,0 C 2,8 C 91 % 0 lf 1001,6 hPa 0,0 l/m 0 min 0 min 0 W/m 11,3 km/h (2 Bft) 91,49 %
06.01.2018 01:30 5,0 C 4,4 C 2,8 C 91 % 0 lf 1001,5 hPa 0,0 l/m 0 min 0 min 0 W/m 11,3 km/h (2 Bft) 93,62 %
06.01.2018 01:32 5,0 C 4,4 C 2,8 C 91 % 0 lf 1001,5 hPa 0,0 l/m 0 min 0 min 0 W/m 11,3 km/h (2 Bft) 95,24 %
06.01.2018 01:34 5,0 C 4,4 C 2,8 C 91 % 0 lf 1001,4 hPa 0,0 l/m 0 min 0 min 0 W/m 11,3 km/h (2 Bft) 95,65 %
06.01.2018 01:36 5,0 C 4,4 C 2,8 C 91 % 0 lf 1001,5 hPa 0,0 l/m 0 min 0 min 0 W/m 13,5 km/h (3 Bft) 93,62 %
06.01.2018 01:38 5,0 C 4,4 C 2,2 C 91 % 0 lf 1001,5 hPa 0,0 l/m 0 min 0 min 0 W/m 11,3 km/h (2 Bft) 93,62 %
06.01.2018 01:40 5,0 C 5,0 C 2,8 C 91 % 0 lf 1001,5 hPa 0,0 l/m 0 min 0 min 0 W/m 11,3 km/h (2 Bft) 95,74 %
06.01.2018 01:42 5,0 C 4,4 C 2,8 C 92 % 0 lf 1001,5 hPa 0,0 l/m 0 min 0 min 0 W/m 11,3 km/h (2 Bft) 95,74 %
06.01.2018 01:44 4,9 C 4,4 C 2,2 C 92 % 0 lf 1001,5 hPa 0,0 l/m 0 min 0 min 0 W/m 9,0 km/h (2 Bft) 97,87 %
06.01.2018 01:46 4,9 C 4,4 C 2,8 C 92 % 0 lf 1001,5 hPa 0,0 l/m 0 min 0 min 0 W/m 9,0 km/h (2 Bft) 97,87 %
06.01.2018 01:48 4,9 C 4,4 C 2,2 C 92 % 0 lf 1001,5 hPa 0,0 l/m 0 min 0 min 0 W/m 9,0 km/h (2 Bft) 95,74 %
06.01.2018 01:50 4,9 C 4,4 C 2,2 C 92 % 0 lf 1001,5 hPa 0,0 l/m 0 min 0 min 0 W/m 6,8 km/h (2 Bft) 95,74 %
06.01.2018 01:52 4,9 C 4,4 C 1,7 C 92 % 0 lf 1001,5 hPa 0,0 l/m 0 min 0 min 0 W/m 6,8 km/h (2 Bft) 95,74 %
06.01.2018 01:54 4,9 C 4,4 C 2,2 C 92 % 0 lf 1001,5 hPa 0,0 l/m 0 min 0 min 0 W/m 9,0 km/h (2 Bft) 97,87 %
06.01.2018 01:56 4,9 C 3,9 C 1,7 C 91 % 0 lf 1001,5 hPa 0,0 l/m 0 min 0 min 0 W/m 6,8 km/h (2 Bft) 97,83 %
06.01.2018 01:58 4,8 C 3,9 C 1,7 C 91 % 0 lf 1001,5 hPa 0,0 l/m 0 min 0 min 0 W/m 9,0 km/h (2 Bft) 97,87 %
06.01.2018 02:00 4,8 C 3,9 C 1,7 C 91 % 0 lf 1001,6 hPa 0,0 l/m 0 min 0 min 0 W/m 11,3 km/h (2 Bft) 95,74 %
06.01.2018 02:02 4,8 C 3,9 C 1,7 C 91 % 0 lf 1001,7 hPa 0,0 l/m 0 min 0 min 0 W/m 6,8 km/h (2 Bft) 95,74 %
06.01.2018 02:04 4,7 C 3,9 C 1,7 C 91 % 0 lf 1001,7 hPa 0,0 l/m 0 min 0 min 0 W/m 9,0 km/h (2 Bft) 95,74 %
06.01.2018 02:06 4,7 C 3,9 C 1,7 C 91 % 0 lf 1001,6 hPa 0,0 l/m 0 min 0 min 0 W/m 6,8 km/h (2 Bft) 91,49 %
06.01.2018 02:08 4,7 C 3,9 C 1,7 C 91 % 0 lf 1001,6 hPa 0,0 l/m 0 min 0 min 0 W/m 6,8 km/h (2 Bft) 95,65 %
06.01.2018 02:10 4,6 C 3,9 C 1,7 C 91 % 1 lf 1001,6 hPa 0,0 l/m 0 min 0 min 0 W/m 9,0 km/h (2 Bft) 95,74 %
06.01.2018 02:12 4,6 C 3,9 C 1,7 C 91 % 1 lf 1001,7 hPa 0,0 l/m 0 min 0 min 0 W/m 9,0 km/h (2 Bft) 95,74 %
06.01.2018 02:14 4,5 C 3,9 C 1,7 C 91 % 1 lf 1001,7 hPa 0,0 l/m 0 min 0 min 0 W/m 6,8 km/h (2 Bft) 97,87 %
06.01.2018 02:16 4,5 C 3,3 C 1,7 C 91 % 1 lf 1001,7 hPa 0,0 l/m 0 min 0 min 0 W/m 9,0 km/h (2 Bft) 100,00 %
06.01.2018 02:18 4,4 C 3,9 C 1,7 C 91 % 1 lf 1001,7 hPa 0,0 l/m 0 min 0 min 0 W/m 6,8 km/h (2 Bft) 97,87 %
06.01.2018 02:20 4,4 C 3,3 C 1,1 C 91 % 1 lf 1001,7 hPa 0,0 l/m 0 min 0 min 0 W/m 9,0 km/h (2 Bft) 98,08 %
06.01.2018 02:22 4,4 C 3,3 C 1,1 C 91 % 1 lf 1001,7 hPa 0,0 l/m 0 min 0 min 0 W/m 6,8 km/h (2 Bft) 95,74 %
06.01.2018 02:24 4,4 C 3,3 C 1,1 C 91 % 1 lf 1001,7 hPa 0,0 l/m 0 min 0 min 0 W/m 9,0 km/h (2 Bft) 95,74 %
06.01.2018 02:26 4,4 C 3,3 C 1,1 C 91 % 1 lf 1001,8 hPa 0,0 l/m 0 min 0 min 0 W/m 6,8 km/h (2 Bft) 93,62 %
06.01.2018 02:28 4,3 C 3,3 C 1,1 C 91 % 1 lf 1001,9 hPa 0,0 l/m 0 min 0 min 0 W/m 4,5 km/h (1 Bft) 97,87 %
06.01.2018 02:30 4,3 C 3,3 C 1,1 C 91 % 1 lf 1001,9 hPa 0,0 l/m 0 min 0 min 0 W/m 9,0 km/h (2 Bft) 100,00 %
06.01.2018 02:32 4,2 C 3,3 C 1,1 C 91 % 1 lf 1001,9 hPa 0,0 l/m 0 min 0 min 0 W/m 9,0 km/h (2 Bft) 97,87 %
06.01.2018 02:34 4,2 C 3,3 C 1,1 C 91 % 1 lf 1002,0 hPa 0,0 l/m 0 min 0 min 0 W/m 9,0 km/h (2 Bft) 97,87 %
06.01.2018 02:36 4,2 C 3,3 C 1,1 C 91 % 1 lf 1002,0 hPa 0,0 l/m 0 min 0 min 0 W/m 9,0 km/h (2 Bft) 97,87 %
06.01.2018 02:38 4,2 C 3,3 C 1,1 C 91 % 1 lf 1002,0 hPa 0,0 l/m 0 min 0 min 0 W/m 6,8 km/h (2 Bft) 95,74 %
06.01.2018 02:40 4,2 C 3,3 C 1,1 C 92 % 1 lf 1002,1 hPa 0,0 l/m 0 min 0 min 0 W/m 9,0 km/h (2 Bft) 97,87 %
06.01.2018 02:42 4,1 C 3,3 C 1,1 C 92 % 1 lf 1002,1 hPa 0,0 l/m 0 min 0 min 0 W/m 6,8 km/h (2 Bft) 95,74 %
06.01.2018 02:44 4,1 C 3,3 C 1,1 C 91 % 1 lf 1002,1 hPa 0,0 l/m 0 min 0 min 0 W/m 9,0 km/h (2 Bft) 97,83 %
06.01.2018 02:46 4,1 C 3,3 C 1,1 C 91 % 1 lf 1002,0 hPa 0,0 l/m 0 min 0 min 0 W/m 11,3 km/h (2 Bft) 97,56 %
06.01.2018 02:48 4,1 C 3,3 C 1,1 C 91 % 1 lf 1002,1 hPa 0,0 l/m 0 min 0 min 0 W/m 6,8 km/h (2 Bft) 97,87 %
06.01.2018 02:50 4,0 C 3,3 C 1,1 C 92 % 1 lf 1002,1 hPa 0,0 l/m 0 min 0 min 0 W/m 13,5 km/h (3 Bft) 98,11 %
06.01.2018 02:52 4,0 C 3,3 C 1,1 C 92 % 1 lf 1002,2 hPa 0,0 l/m 0 min 0 min 0 W/m 9,0 km/h (2 Bft) 97,87 %
06.01.2018 02:54 3,9 C 3,3 C 1,1 C 92 % 1 lf 1002,2 hPa 0,0 l/m 0 min 0 min 0 W/m 11,3 km/h (2 Bft) 97,83 %
06.01.2018 02:56 3,9 C 3,3 C 1,1 C 92 % 1 lf 1002,2 hPa 0,0 l/m 0 min 0 min 0 W/m 11,3 km/h (2 Bft) 97,87 %
06.01.2018 02:58 3,9 C 3,3 C 1,1 C 92 % 1 lf 1002,3 hPa 0,0 l/m 0 min 0 min 0 W/m 9,0 km/h (2 Bft) 100,00 %
06.01.2018 03:00 3,9 C 3,3 C 1,1 C 92 % 1 lf 1002,3 hPa 0,0 l/m 0 min 0 min 0 W/m 9,0 km/h (2 Bft) 97,87 %
06.01.2018 03:02 3,9 C 3,3 C 1,7 C 92 % 1 lf 1002,3 hPa 0,0 l/m 0 min 0 min 0 W/m 6,8 km/h (2 Bft) 100,00 %
06.01.2018 03:04 3,8 C 3,3 C 1,1 C 92 % 1 lf 1002,3 hPa 0,0 l/m 0 min 0 min 0 W/m 11,3 km/h (2 Bft) 97,87 %
06.01.2018 03:06 3,8 C 3,3 C 1,1 C 92 % 1 lf 1002,4 hPa 0,0 l/m 0 min 0 min 0 W/m 13,5 km/h (3 Bft) 95,65 %
06.01.2018 03:08 3,8 C 3,3 C 1,7 C 92 % 1 lf 1002,4 hPa 0,0 l/m 0 min 0 min 0 W/m 11,3 km/h (2 Bft) 97,87 %
06.01.2018 03:10 3,8 C 3,3 C 1,7 C 92 % 1 lf 1002,4 hPa 0,0 l/m 0 min 0 min 0 W/m 11,3 km/h (2 Bft) 100,00 %
06.01.2018 03:12 3,8 C 3,3 C 1,7 C 92 % 1 lf 1002,4 hPa 0,0 l/m 0 min 0 min 0 W/m 11,3 km/h (2 Bft) 95,74 %
06.01.2018 03:14 3,8 C 3,3 C 1,7 C 92 % 1 lf 1002,4 hPa 0,0 l/m 0 min 0 min 0 W/m 11,3 km/h (2 Bft) 100,00 %
06.01.2018 03:16 3,8 C 3,3 C 1,7 C 92 % 1 lf 1002,4 hPa 0,0 l/m 0 min 0 min 0 W/m 9,0 km/h (2 Bft) 100,00 %
06.01.2018 03:18 3,8 C 3,3 C 1,7 C 93 % 1 lf 1002,5 hPa 0,0 l/m 0 min 0 min 0 W/m 9,0 km/h (2 Bft) 100,00 %
06.01.2018 03:20 3,8 C 3,9 C 1,7 C 93 % 1 lf 1002,5 hPa 0,0 l/m 0 min 0 min 0 W/m 13,5 km/h (3 Bft) 100,00 %
06.01.2018 03:22 3,8 C 3,3 C 1,7 C 93 % 1 lf 1002,5 hPa 0,0 l/m 0 min 0 min 0 W/m 9,0 km/h (2 Bft) 97,87 %
06.01.2018 03:24 3,8 C 3,9 C 1,7 C 93 % 1 lf 1002,6 hPa 0,0 l/m 0 min 0 min 0 W/m 9,0 km/h (2 Bft) 100,00 %
06.01.2018 03:26 3,8 C 3,3 C 1,7 C 93 % 1 lf 1002,6 hPa 0,0 l/m 0 min 0 min 0 W/m 9,0 km/h (2 Bft) 100,00 %
06.01.2018 03:28 3,8 C 3,3 C 1,7 C 93 % 1 lf 1002,7 hPa 0,0 l/m 0 min 0 min 0 W/m 13,5 km/h (3 Bft) 100,00 %
06.01.2018 03:30 3,8 C 3,9 C 1,7 C 93 % 1 lf 1002,7 hPa 0,0 l/m 0 min 0 min 0 W/m 11,3 km/h (2 Bft) 97,83 %
06.01.2018 03:32 3,8 C 3,3 C 1,7 C 93 % 1 lf 1002,7 hPa 0,0 l/m 0 min 0 min 0 W/m 6,8 km/h (2 Bft) 97,87 %
06.01.2018 03:34 3,8 C 3,9 C 1,7 C 93 % 1 lf 1002,7 hPa 0,0 l/m 0 min 0 min 0 W/m 9,0 km/h (2 Bft) 97,87 %
06.01.2018 03:36 3,8 C 3,3 C 1,7 C 93 % 1 lf 1002,7 hPa 0,0 l/m 0 min 0 min 0 W/m 6,8 km/h (2 Bft) 95,74 %
06.01.2018 03:38 3,8 C 3,3 C 1,7 C 93 % 1 lf 1002,7 hPa 0,0 l/m 0 min 0 min 0 W/m 9,0 km/h (2 Bft) 97,87 %
06.01.2018 03:40 3,8 C 3,3 C 1,1 C 93 % 1 lf 1002,8 hPa 0,0 l/m 0 min 0 min 0 W/m 9,0 km/h (2 Bft) 95,65 %
06.01.2018 03:42 3,8 C 3,3 C 1,7 C 93 % 1 lf 1002,8 hPa 0,0 l/m 0 min 0 min 0 W/m 9,0 km/h (2 Bft) 95,74 %
06.01.2018 03:44 3,8 C 3,3 C 1,1 C 93 % 1 lf 1002,8 hPa 0,0 l/m 0 min 0 min 0 W/m 9,0 km/h (2 Bft) 97,87 %
06.01.2018 03:46 3,8 C 3,3 C 1,1 C 93 % 1 lf 1002,8 hPa 0,0 l/m 0 min 0 min 0 W/m 9,0 km/h (2 Bft) 95,74 %
06.01.2018 03:48 3,7 C 3,3 C 1,7 C 93 % 1 lf 1002,8 hPa 0,0 l/m 0 min 0 min 0 W/m 9,0 km/h (2 Bft) 97,87 %
06.01.2018 03:50 3,7 C 3,3 C 1,7 C 93 % 1 lf 1002,8 hPa 0,0 l/m 0 min 0 min 0 W/m 9,0 km/h (2 Bft) 97,87 %
06.01.2018 03:52 3,7 C 3,3 C 1,7 C 93 % 1 lf 1002,8 hPa 0,0 l/m 0 min 0 min 0 W/m 11,3 km/h (2 Bft) 95,65 %
06.01.2018 03:54 3,7 C 3,3 C 1,7 C 93 % 1 lf 1002,7 hPa 0,0 l/m 0 min 0 min 0 W/m 9,0 km/h (2 Bft) 97,87 %
06.01.2018 03:56 3,7 C 3,3 C 1,7 C 93 % 1 lf 1002,7 hPa 0,0 l/m 0 min 0 min 0 W/m 9,0 km/h (2 Bft) 95,74 %
06.01.2018 03:58 3,7 C 3,3 C 1,7 C 93 % 1 lf 1002,7 hPa 0,0 l/m 0 min 0 min 0 W/m 9,0 km/h (2 Bft) 95,74 %
06.01.2018 04:00 3,7 C 3,3 C 1,7 C 93 % 1 lf 1002,7 hPa 0,0 l/m 0 min 0 min 0 W/m 9,0 km/h (2 Bft) 97,87 %
06.01.2018 04:05 3,7 C 3,3 C 1,1 C 93 % 1 lf 1002,7 hPa 0,0 l/m 0 min 0 min 0 W/m 6,8 km/h (2 Bft) 97,10 %
06.01.2018 04:06 3,7 C 3,3 C 1,1 C 93 % 1 lf 1002,7 hPa 0,0 l/m 0 min 0 min 0 W/m 9,0 km/h (2 Bft) 91,30 %
06.01.2018 04:08 3,7 C 3,3 C 1,1 C 93 % 1 lf 1002,8 hPa 0,0 l/m 0 min 0 min 0 W/m 9,0 km/h (2 Bft) 95,74 %
06.01.2018 04:10 3,7 C 3,3 C 1,7 C 93 % 1 lf 1002,8 hPa 0,0 l/m 0 min 0 min 0 W/m 9,0 km/h (2 Bft) 95,74 %
06.01.2018 04:12 3,7 C 3,3 C 1,7 C 94 % 1 lf 1002,9 hPa 0,0 l/m 0 min 0 min 0 W/m 9,0 km/h (2 Bft) 97,87 %
06.01.2018 04:14 3,7 C 3,3 C 1,7 C 94 % 1 lf 1002,8 hPa 0,0 l/m 0 min 0 min 0 W/m 11,3 km/h (2 Bft) 97,87 %
06.01.2018 04:16 3,7 C 3,3 C 1,7 C 94 % 1 lf 1002,8 hPa 0,0 l/m 0 min 0 min 0 W/m 9,0 km/h (2 Bft) 97,83 %
06.01.2018 04:18 3,7 C 3,3 C 1,7 C 94 % 1 lf 1002,7 hPa 0,0 l/m 0 min 0 min 0 W/m 6,8 km/h (2 Bft) 97,87 %
06.01.2018 04:20 3,7 C 3,3 C 1,7 C 94 % 1 lf 1002,7 hPa 0,0 l/m 0 min 0 min 0 W/m 9,0 km/h (2 Bft) 97,87 %
06.01.2018 04:22 3,7 C 3,3 C 1,7 C 94 % 1 lf 1002,7 hPa 0,0 l/m 0 min 0 min 0 W/m 11,3 km/h (2 Bft) 93,62 %
06.01.2018 04:24 3,7 C 3,3 C 1,7 C 94 % 1 lf 1002,7 hPa 0,0 l/m 0 min 0 min 0 W/m 9,0 km/h (2 Bft) 91,49 %
06.01.2018 04:26 3,7 C 3,3 C 1,7 C 94 % 1 lf 1002,7 hPa 0,0 l/m 0 min 0 min 0 W/m 9,0 km/h (2 Bft) 93,62 %
06.01.2018 04:28 3,7 C 3,3 C 1,7 C 94 % 0 lf 1002,7 hPa 0,0 l/m 0 min 0 min 0 W/m 9,0 km/h (2 Bft) 93,48 %
06.01.2018 04:30 3,7 C 3,3 C 1,7 C 94 % 0 lf 1002,7 hPa 0,0 l/m 0 min 0 min 0 W/m 6,8 km/h (2 Bft) 95,74 %
06.01.2018 04:32 3,7 C 3,3 C 1,7 C 94 % 0 lf 1002,7 hPa 0,0 l/m 0 min 0 min 0 W/m 9,0 km/h (2 Bft) 93,62 %
06.01.2018 04:34 3,7 C 3,3 C 1,7 C 94 % 0 lf 1002,7 hPa 0,0 l/m 0 min 0 min 0 W/m 9,0 km/h (2 Bft) 93,62 %
06.01.2018 04:36 3,7 C 3,3 C 1,7 C 94 % 0 lf 1002,7 hPa 0,0 l/m 0 min 0 min 0 W/m 9,0 km/h (2 Bft) 93,62 %
06.01.2018 04:38 3,7 C 3,3 C 1,7 C 94 % 0 lf 1002,7 hPa 0,0 l/m 0 min 0 min 0 W/m 6,8 km/h (2 Bft) 93,62 %
06.01.2018 04:40 3,7 C 3,3 C 1,7 C 94 % 0 lf 1002,7 hPa 0,0 l/m 0 min 0 min 0 W/m 9,0 km/h (2 Bft) 91,30 %
06.01.2018 04:42 3,7 C 3,3 C 1,7 C 94 % 0 lf 1002,7 hPa 0,0 l/m 0 min 0 min 0 W/m 6,8 km/h (2 Bft) 91,49 %
06.01.2018 04:44 3,7 C 3,3 C 1,7 C 94 % 1 lf 1002,7 hPa 0,0 l/m 0 min 0 min 0 W/m 9,0 km/h (2 Bft) 93,62 %
06.01.2018 04:46 3,6 C 3,3 C 1,1 C 94 % 1 lf 1002,7 hPa 0,0 l/m 0 min 0 min 0 W/m 4,5 km/h (1 Bft) 93,62 %
06.01.2018 04:48 3,6 C 3,3 C 1,1 C 94 % 1 lf 1002,7 hPa 0,0 l/m 0 min 0 min 0 W/m 6,8 km/h (2 Bft) 95,74 %
06.01.2018 04:50 3,6 C 3,3 C 1,1 C 94 % 1 lf 1002,6 hPa 0,0 l/m 0 min 0 min 0 W/m 6,8 km/h (2 Bft) 93,62 %
06.01.2018 04:52 3,6 C 3,3 C 1,1 C 94 % 1 lf 1002,6 hPa 0,0 l/m 0 min 0 min 0 W/m 6,8 km/h (2 Bft) 91,30 %
06.01.2018 04:54 3,6 C 3,3 C 1,1 C 94 % 1 lf 1002,6 hPa 0,0 l/m 0 min 0 min 0 W/m 9,0 km/h (2 Bft) 95,74 %
06.01.2018 04:56 3,6 C 3,3 C 1,1 C 94 % 1 lf 1002,6 hPa 0,0 l/m 0 min 0 min 0 W/m 6,8 km/h (2 Bft) 95,74 %
06.01.2018 04:58 3,6 C 3,3 C 1,1 C 94 % 1 lf 1002,6 hPa 0,0 l/m 0 min 0 min 0 W/m 6,8 km/h (2 Bft) 93,62 %
06.01.2018 05:00 3,6 C 3,3 C 1,1 C 94 % 1 lf 1002,7 hPa 0,0 l/m 0 min 0 min 0 W/m 9,0 km/h (2 Bft) 93,62 %
06.01.2018 05:02 3,6 C 3,3 C 1,1 C 94 % 1 lf 1002,7 hPa 0,0 l/m 0 min 0 min 0 W/m 9,0 km/h (2 Bft) 95,65 %
06.01.2018 05:04 3,5 C 2,8 C 1,1 C 94 % 1 lf 1002,7 hPa 0,0 l/m 0 min 0 min 0 W/m 9,0 km/h (2 Bft) 93,62 %
06.01.2018 05:06 3,5 C 2,8 C 1,1 C 94 % 1 lf 1002,7 hPa 0,0 l/m 0 min 0 min 0 W/m 6,8 km/h (2 Bft) 93,62 %
06.01.2018 05:08 3,5 C 2,8 C 1,1 C 94 % 1 lf 1002,7 hPa 0,0 l/m 0 min 0 min 0 W/m 9,0 km/h (2 Bft) 93,62 %
06.01.2018 05:10 3,4 C 2,8 C 1,1 C 94 % 1 lf 1002,7 hPa 0,0 l/m 0 min 0 min 0 W/m 9,0 km/h (2 Bft) 97,87 %
06.01.2018 05:12 3,4 C 2,8 C 1,1 C 94 % 1 lf 1002,7 hPa 0,0 l/m 0 min 0 min 0 W/m 6,8 km/h (2 Bft) 95,74 %
06.01.2018 05:14 3,4 C 2,8 C 1,1 C 94 % 1 lf 1002,8 hPa 0,0 l/m 0 min 0 min 0 W/m 6,8 km/h (2 Bft) 97,83 %
06.01.2018 05:16 3,4 C 2,8 C 1,1 C 94 % 1 lf 1002,8 hPa 0,0 l/m 0 min 0 min 0 W/m 9,0 km/h (2 Bft) 97,87 %
06.01.2018 05:18 3,4 C 2,8 C 1,1 C 94 % 1 lf 1002,7 hPa 0,0 l/m 0 min 0 min 0 W/m 9,0 km/h (2 Bft) 91,49 %
06.01.2018 05:20 3,3 C 2,8 C 1,1 C 94 % 1 lf 1002,7 hPa 0,0 l/m 0 min 0 min 0 W/m 6,8 km/h (2 Bft) 95,74 %
06.01.2018 05:22 3,3 C 2,8 C 1,1 C 94 % 1 lf 1002,8 hPa 0,0 l/m 0 min 0 min 0 W/m 6,8 km/h (2 Bft) 97,87 %
06.01.2018 05:24 3,3 C 2,8 C 1,1 C 94 % 1 lf 1002,9 hPa 0,0 l/m 0 min 0 min 0 W/m 11,3 km/h (2 Bft) 97,87 %
06.01.2018 05:26 3,3 C 2,8 C 1,1 C 94 % 1 lf 1002,9 hPa 0,0 l/m 0 min 0 min 0 W/m 11,3 km/h (2 Bft) 95,65 %
06.01.2018 05:28 3,3 C 2,8 C 1,1 C 94 % 1 lf 1003,0 hPa 0,0 l/m 0 min 0 min 0 W/m 13,5 km/h (3 Bft) 97,87 %
06.01.2018 05:30 3,3 C 3,3 C 1,7 C 94 % 1 lf 1003,1 hPa 0,0 l/m 0 min 0 min 0 W/m 11,3 km/h (2 Bft) 97,87 %
06.01.2018 05:32 3,3 C 3,3 C 1,7 C 94 % 1 lf 1003,1 hPa 0,0 l/m 0 min 0 min 0 W/m 13,5 km/h (3 Bft) 100,00 %
06.01.2018 05:34 3,3 C 3,3 C 1,7 C 94 % 1 lf 1003,1 hPa 0,0 l/m 0 min 0 min 0 W/m 9,0 km/h (2 Bft) 100,00 %
06.01.2018 05:35 3,3 C 3,3 C 1,7 C 94 % 1 lf 1003,1 hPa 0,0 l/m 0 min 0 min 0 W/m 13,5 km/h (3 Bft) 100,00 %
06.01.2018 05:40 3,3 C 3,3 C 1,7 C 94 % 1 lf 1003,0 hPa 0,0 l/m 0 min 0 min 0 W/m 9,0 km/h (2 Bft) 95,65 %
06.01.2018 05:42 3,3 C 3,3 C 1,7 C 94 % 1 lf 1003,0 hPa 0,0 l/m 0 min 0 min 0 W/m 6,8 km/h (2 Bft) 100,00 %
06.01.2018 05:44 3,3 C 3,3 C 1,7 C 94 % 0 lf 1002,9 hPa 0,0 l/m 0 min 0 min 0 W/m 9,0 km/h (2 Bft) 100,00 %
06.01.2018 05:46 3,3 C 3,3 C 1,7 C 94 % 0 lf 1003,0 hPa 0,0 l/m 0 min 0 min 0 W/m 6,8 km/h (2 Bft) 97,83 %
06.01.2018 05:48 3,3 C 3,3 C 1,7 C 94 % 0 lf 1003,1 hPa 0,0 l/m 0 min 0 min 0 W/m 9,0 km/h (2 Bft) 100,00 %
06.01.2018 05:50 3,3 C 3,3 C 1,7 C 94 % 0 lf 1003,1 hPa 0,0 l/m 0 min 0 min 0 W/m 11,3 km/h (2 Bft) 96,72 %
06.01.2018 05:52 3,3 C 3,3 C 1,7 C 94 % 0 lf 1003,2 hPa 0,0 l/m 0 min 0 min 0 W/m 11,3 km/h (2 Bft) 100,00 %
06.01.2018 05:54 3,3 C 3,3 C 1,7 C 94 % 0 lf 1003,3 hPa 0,0 l/m 0 min 0 min 0 W/m 9,0 km/h (2 Bft) 100,00 %
06.01.2018 05:56 3,3 C 3,3 C 1,7 C 94 % 0 lf 1003,3 hPa 0,0 l/m 0 min 0 min 0 W/m 11,3 km/h (2 Bft) 97,87 %
06.01.2018 05:58 3,3 C 3,3 C 1,7 C 94 % 0 lf 1003,3 hPa 0,0 l/m 0 min 0 min 0 W/m 6,8 km/h (2 Bft) 97,87 %
06.01.2018 06:00 3,3 C 3,3 C 1,7 C 94 % 0 lf 1003,3 hPa 0,0 l/m 0 min 0 min 0 W/m 9,0 km/h (2 Bft) 100,00 %
06.01.2018 06:02 3,3 C 3,3 C 1,7 C 94 % 0 lf 1003,3 hPa 0,0 l/m 0 min 0 min 0 W/m 9,0 km/h (2 Bft) 100,00 %
06.01.2018 06:04 3,3 C 3,3 C 1,7 C 94 % 0 lf 1003,5 hPa 0,0 l/m 0 min 0 min 0 W/m 11,3 km/h (2 Bft) 97,87 %
06.01.2018 06:08 3,3 C 3,3 C 1,7 C 94 % 0 lf 1003,5 hPa 0,0 l/m 0 min 0 min 0 W/m 11,3 km/h (2 Bft) 97,96 %
06.01.2018 06:12 3,3 C 3,3 C 1,7 C 94 % 0 lf 1003,5 hPa 0,0 l/m 0 min 0 min 0 W/m 13,5 km/h (3 Bft) 95,18 %
06.01.2018 06:14 3,3 C 3,3 C 1,7 C 94 % 0 lf 1003,5 hPa 0,0 l/m 0 min 0 min 0 W/m 11,3 km/h (2 Bft) 95,74 %
06.01.2018 06:16 3,3 C 3,3 C 1,7 C 94 % 0 lf 1003,5 hPa 0,0 l/m 0 min 0 min 0 W/m 9,0 km/h (2 Bft) 95,83 %
06.01.2018 06:18 3,3 C 3,3 C 1,7 C 94 % 0 lf 1003,5 hPa 0,0 l/m 0 min 0 min 0 W/m 9,0 km/h (2 Bft) 95,74 %
06.01.2018 06:20 3,3 C 3,3 C 1,7 C 94 % 0 lf 1003,6 hPa 0,0 l/m 0 min 0 min 0 W/m 11,3 km/h (2 Bft) 93,10 %
06.01.2018 06:22 3,3 C 3,3 C 1,7 C 94 % 0 lf 1003,5 hPa 0,0 l/m 0 min 0 min 0 W/m 11,3 km/h (2 Bft) 94,29 %
06.01.2018 06:24 3,3 C 3,3 C 1,7 C 94 % 0 lf 1003,6 hPa 0,0 l/m 0 min 0 min 0 W/m 13,5 km/h (3 Bft) 95,74 %
06.01.2018 06:26 3,3 C 3,3 C 1,7 C 94 % 0 lf 1003,6 hPa 0,0 l/m 0 min 0 min 0 W/m 11,3 km/h (2 Bft) 93,62 %
06.01.2018 06:28 3,3 C 3,3 C 1,7 C 94 % 0 lf 1003,7 hPa 0,0 l/m 0 min 0 min 0 W/m 9,0 km/h (2 Bft) 95,83 %
06.01.2018 06:30 3,3 C 3,3 C 1,7 C 94 % 0 lf 1003,7 hPa 0,0 l/m 0 min 0 min 0 W/m 11,3 km/h (2 Bft) 95,74 %
06.01.2018 06:32 3,3 C 3,3 C 1,7 C 94 % 0 lf 1003,7 hPa 0,0 l/m 0 min 0 min 0 W/m 13,5 km/h (3 Bft) 93,75 %
06.01.2018 06:34 3,3 C 3,3 C 1,7 C 94 % 0 lf 1003,6 hPa 0,0 l/m 0 min 0 min 0 W/m 9,0 km/h (2 Bft) 95,65 %
06.01.2018 06:38 3,3 C 3,3 C 1,7 C 94 % 0 lf 1003,5 hPa 0,0 l/m 0 min 0 min 0 W/m 9,0 km/h (2 Bft) 92,55 %
06.01.2018 06:40 3,4 C 3,3 C 1,7 C 94 % 0 lf 1003,5 hPa 0,0 l/m 0 min 0 min 0 W/m 11,3 km/h (2 Bft) 91,67 %
06.01.2018 06:42 3,4 C 3,3 C 1,7 C 94 % 0 lf 1003,5 hPa 0,0 l/m 0 min 0 min 0 W/m 9,0 km/h (2 Bft) 93,62 %
06.01.2018 06:44 3,4 C 3,3 C 1,7 C 94 % 0 lf 1003,4 hPa 0,0 l/m 0 min 0 min 0 W/m 6,8 km/h (2 Bft) 97,87 %
06.01.2018 06:46 3,4 C 3,3 C 1,7 C 94 % 0 lf 1003,4 hPa 0,0 l/m 0 min 0 min 0 W/m 11,3 km/h (2 Bft) 97,87 %
06.01.2018 06:48 3,4 C 3,3 C 1,7 C 94 % 0 lf 1003,6 hPa 0,0 l/m 0 min 0 min 0 W/m 11,3 km/h (2 Bft) 97,87 %
06.01.2018 06:50 3,4 C 3,3 C 1,7 C 94 % 0 lf 1003,7 hPa 0,0 l/m 0 min 0 min 0 W/m 11,3 km/h (2 Bft) 98,28 %
06.01.2018 06:52 3,4 C 3,3 C 1,7 C 94 % 0 lf 1003,7 hPa 0,0 l/m 0 min 0 min 0 W/m 11,3 km/h (2 Bft) 97,30 %
06.01.2018 06:54 3,4 C 3,3 C 1,7 C 94 % 0 lf 1003,6 hPa 0,0 l/m 0 min 0 min 0 W/m 9,0 km/h (2 Bft) 100,00 %
06.01.2018 06:56 3,4 C 3,3 C 1,7 C 94 % 0 lf 1003,5 hPa 0,0 l/m 0 min 0 min 0 W/m 11,3 km/h (2 Bft) 97,87 %
06.01.2018 06:58 3,3 C 2,8 C 1,1 C 94 % 0 lf 1003,5 hPa 0,0 l/m 0 min 0 min 0 W/m 9,0 km/h (2 Bft) 100,00 %
06.01.2018 07:00 3,3 C 2,8 C 1,1 C 94 % 0 lf 1003,6 hPa 0,0 l/m 0 min 0 min 0 W/m 6,8 km/h (2 Bft) 100,00 %
06.01.2018 07:02 3,3 C 2,8 C 1,1 C 94 % 0 lf 1003,7 hPa 0,0 l/m 0 min 0 min 0 W/m 9,0 km/h (2 Bft) 100,00 %
06.01.2018 07:04 3,3 C 2,8 C 1,1 C 94 % 0 lf 1003,6 hPa 0,0 l/m 0 min 0 min 0 W/m 6,8 km/h (2 Bft) 100,00 %
06.01.2018 07:08 3,3 C 2,8 C 1,1 C 94 % 0 lf 1003,7 hPa 0,0 l/m 0 min 0 min 0 W/m 9,0 km/h (2 Bft) 100,00 %
06.01.2018 07:10 3,3 C 2,8 C 1,1 C 94 % 0 lf 1003,7 hPa 0,0 l/m 0 min 0 min 0 W/m 6,8 km/h (2 Bft) 97,87 %
06.01.2018 07:12 3,3 C 2,8 C 1,1 C 94 % 0 lf 1003,7 hPa 0,0 l/m 0 min 0 min 0 W/m 9,0 km/h (2 Bft) 97,87 %
06.01.2018 07:14 3,2 C 2,8 C 1,1 C 94 % 0 lf 1003,6 hPa 0,0 l/m 0 min 0 min 0 W/m 6,8 km/h (2 Bft) 95,65 %
06.01.2018 07:16 3,2 C 2,8 C 1,1 C 94 % 0 lf 1003,7 hPa 0,0 l/m 0 min 0 min 0 W/m 6,8 km/h (2 Bft) 100,00 %
06.01.2018 07:18 3,2 C 2,8 C 1,1 C 94 % 0 lf 1003,7 hPa 0,0 l/m 0 min 0 min 0 W/m 6,8 km/h (2 Bft) 95,74 %
06.01.2018 07:20 3,2 C 2,8 C 1,1 C 94 % 0 lf 1003,8 hPa 0,0 l/m 0 min 0 min 0 W/m 6,8 km/h (2 Bft) 95,12 %
06.01.2018 07:22 3,2 C 2,8 C 1,1 C 94 % 0 lf 1003,9 hPa 0,0 l/m 0 min 0 min 0 W/m 6,8 km/h (2 Bft) 95,83 %
06.01.2018 07:24 3,2 C 2,8 C 1,1 C 94 % 0 lf 1003,8 hPa 0,0 l/m 0 min 0 min 0 W/m 6,8 km/h (2 Bft) 97,87 %
06.01.2018 07:26 3,2 C 2,8 C 1,1 C 94 % 0 lf 1003,8 hPa 0,0 l/m 0 min 0 min 0 W/m 6,8 km/h (2 Bft) 97,92 %
06.01.2018 07:28 3,1 C 2,8 C 0,6 C 94 % 1 lf 1003,9 hPa 0,0 l/m 0 min 0 min 0 W/m 4,5 km/h (1 Bft) 93,75 %
06.01.2018 07:30 3,1 C 2,8 C 0,6 C 94 % 1 lf 1003,9 hPa 0,0 l/m 0 min 0 min 0 W/m 4,5 km/h (1 Bft) 93,62 %
06.01.2018 07:32 3,1 C 2,2 C 0,6 C 94 % 1 lf 1003,9 hPa 0,0 l/m 0 min 0 min 0 W/m 4,5 km/h (1 Bft) 95,83 %
06.01.2018 07:34 3,1 C 2,2 C 0,6 C 94 % 1 lf 1003,9 hPa 0,0 l/m 0 min 0 min 0 W/m 2,3 km/h (1 Bft) 97,87 %
06.01.2018 07:36 3,1 C 2,2 C 0,6 C 94 % 1 lf 1003,9 hPa 0,0 l/m 0 min 0 min 0 W/m 0,0 km/h (0 Bft) 95,74 %
06.01.2018 07:38 3,1 C 2,2 C 0,6 C 94 % 1 lf 1004,0 hPa 0,0 l/m 0 min 0 min 0 W/m 0,0 km/h (0 Bft) 93,62 %
06.01.2018 07:40 3,0 C 2,2 C 1,1 C 94 % 0 lf 1004,1 hPa 0,0 l/m 0 min 0 min 0 W/m 0,0 km/h (0 Bft) 97,87 %
06.01.2018 07:42 3,0 C 2,2 C 0,6 C 94 % 0 lf 1004,0 hPa 0,0 l/m 0 min 0 min 0 W/m 0,0 km/h (0 Bft) 93,62 %
06.01.2018 07:44 3,0 C 2,2 C 0,6 C 94 % 0 lf 1004,0 hPa 0,0 l/m 0 min 0 min 0 W/m 0,0 km/h (0 Bft) 97,87 %
06.01.2018 07:46 3,0 C 2,2 C 0,6 C 94 % 1 lf 1003,9 hPa 0,0 l/m 0 min 0 min 0 W/m 0,0 km/h (0 Bft) 91,49 %
06.01.2018 07:48 2,9 C 1,7 C 0,6 C 94 % 1 lf 1004,0 hPa 0,0 l/m 0 min 0 min 0 W/m 0,0 km/h (0 Bft) 97,83 %
06.01.2018 07:50 2,9 C 1,7 C 0,6 C 94 % 1 lf 1003,9 hPa 0,0 l/m 0 min 0 min 0 W/m 0,0 km/h (0 Bft) 97,87 %
06.01.2018 07:52 2,9 C 1,7 C 0,0 C 94 % 1 lf 1003,9 hPa 0,0 l/m 0 min 0 min 0 W/m 0,0 km/h (0 Bft) 97,87 %
06.01.2018 07:54 2,9 C 1,7 C 0,0 C 94 % 1 lf 1003,9 hPa 0,0 l/m 0 min 0 min 0 W/m 0,0 km/h (0 Bft) 95,74 %
06.01.2018 07:56 2,9 C 1,7 C 0,0 C 94 % 1 lf 1003,9 hPa 0,0 l/m 0 min 0 min 0 W/m 0,0 km/h (0 Bft) 97,87 %
06.01.2018 07:58 2,8 C 1,7 C 0,0 C 94 % 1 lf 1003,9 hPa 0,0 l/m 0 min 0 min 0 W/m 0,0 km/h (0 Bft) 100,00 %
06.01.2018 08:00 2,8 C 1,1 C 0,0 C 93 % 1 lf 1003,9 hPa 0,0 l/m 0 min 0 min 0 W/m 0,0 km/h (0 Bft) 95,65 %
06.01.2018 08:02 2,8 C 1,1 C 0,0 C 93 % 1 lf 1004,0 hPa 0,0 l/m 0 min 0 min 0 W/m 0,0 km/h (0 Bft) 97,87 %
06.01.2018 08:04 2,7 C 1,1 C 0,0 C 93 % 1 lf 1004,0 hPa 0,0 l/m 0 min 0 min 0 W/m 0,0 km/h (0 Bft) 95,45 %
06.01.2018 08:06 2,7 C 1,1 C 0,0 C 93 % 1 lf 1004,0 hPa 0,0 l/m 0 min 0 min 0 W/m 0,0 km/h (0 Bft) 95,65 %
06.01.2018 08:08 2,7 C 1,7 C 0,0 C 93 % 1 lf 1004,1 hPa 0,0 l/m 0 min 0 min 0 W/m 0,0 km/h (0 Bft) 95,83 %
06.01.2018 08:10 2,7 C 1,1 C 0,0 C 93 % 1 lf 1004,2 hPa 0,0 l/m 0 min 0 min 0 W/m 0,0 km/h (0 Bft) 95,83 %
06.01.2018 08:12 2,7 C 1,1 C 0,0 C 93 % 1 lf 1004,2 hPa 0,0 l/m 0 min 0 min 0 W/m 0,0 km/h (0 Bft) 97,92 %
06.01.2018 08:14 2,6 C 1,1 C 0,0 C 93 % 1 lf 1004,2 hPa 0,0 l/m 0 min 0 min 0 W/m 0,0 km/h (0 Bft) 97,87 %
06.01.2018 08:16 2,6 C 1,1 C 0,0 C 93 % 1 lf 1004,2 hPa 0,0 l/m 0 min 0 min 0 W/m 0,0 km/h (0 Bft) 97,83 %
06.01.2018 08:18 2,6 C 1,1 C 0,0 C 93 % 1 lf 1004,2 hPa 0,0 l/m 0 min 0 min 0 W/m 0,0 km/h (0 Bft) 97,87 %
06.01.2018 08:20 2,5 C 0,6 C -0,6 C 93 % 1 lf 1004,3 hPa 0,0 l/m 0 min 0 min 0 W/m 0,0 km/h (0 Bft) 97,87 %
06.01.2018 08:22 2,5 C 0,6 C 0,0 C 93 % 1 lf 1004,2 hPa 0,0 l/m 0 min 0 min 0 W/m 0,0 km/h (0 Bft) 95,74 %
06.01.2018 08:24 2,4 C 1,1 C 0,0 C 93 % 1 lf 1004,3 hPa 0,0 l/m 0 min 0 min 0 W/m 0,0 km/h (0 Bft) 95,74 %
06.01.2018 08:26 2,4 C 1,1 C 0,0 C 93 % 1 lf 1004,3 hPa 0,0 l/m 0 min 0 min 0 W/m 0,0 km/h (0 Bft) 91,49 %
06.01.2018 08:28 2,4 C 1,1 C 0,6 C 93 % 1 lf 1004,3 hPa 0,0 l/m 0 min 0 min 0 W/m 0,0 km/h (0 Bft) 95,74 %
06.01.2018 08:30 2,4 C 1,1 C 0,6 C 93 % 1 lf 1004,3 hPa 0,0 l/m 0 min 0 min 0 W/m 0,0 km/h (0 Bft) 95,74 %
06.01.2018 08:32 2,3 C 1,1 C 0,6 C 93 % 1 lf 1004,3 hPa 0,0 l/m 0 min 0 min 0 W/m 0,0 km/h (0 Bft) 93,75 %
06.01.2018 08:34 2,3 C 1,1 C 0,0 C 93 % 1 lf 1004,3 hPa 0,0 l/m 0 min 0 min 0 W/m 0,0 km/h (0 Bft) 95,74 %
06.01.2018 08:36 2,3 C 1,1 C 0,0 C 93 % 1 lf 1004,4 hPa 0,0 l/m 0 min 0 min 0 W/m 0,0 km/h (0 Bft) 97,87 %
06.01.2018 08:38 2,3 C 1,1 C 0,0 C 93 % 1 lf 1004,5 hPa 0,0 l/m 0 min 0 min 0 W/m 0,0 km/h (0 Bft) 97,83 %
06.01.2018 08:40 2,3 C 1,1 C 0,0 C 93 % 1 lf 1004,6 hPa 0,0 l/m 0 min 0 min 0 W/m 0,0 km/h (0 Bft) 95,74 %
06.01.2018 08:42 2,3 C 1,1 C 0,0 C 93 % 1 lf 1004,6 hPa 0,0 l/m 0 min 0 min 5 W/m 2,3 km/h (1 Bft) 97,87 %
06.01.2018 08:44 2,2 C 1,1 C 0,0 C 93 % 1 lf 1004,6 hPa 0,0 l/m 0 min 0 min 5 W/m 4,5 km/h (1 Bft) 93,75 %
06.01.2018 08:46 2,2 C 1,1 C 0,0 C 93 % 1 lf 1004,6 hPa 0,0 l/m 0 min 0 min 6 W/m 0,0 km/h (0 Bft) 95,74 %
06.01.2018 08:48 2,2 C 1,1 C 0,0 C 93 % 1 lf 1004,7 hPa 0,0 l/m 0 min 0 min 7 W/m 0,0 km/h (0 Bft) 95,74 %
06.01.2018 08:50 2,2 C 1,1 C 0,0 C 93 % 1 lf 1004,7 hPa 0,0 l/m 0 min 0 min 7 W/m 0,0 km/h (0 Bft) 93,48 %
06.01.2018 08:52 2,2 C 1,1 C 0,0 C 93 % 1 lf 1004,7 hPa 0,0 l/m 0 min 0 min 7 W/m 0,0 km/h (0 Bft) 95,74 %
06.01.2018 08:54 2,1 C 1,1 C 0,0 C 93 % 1 lf 1004,7 hPa 0,0 l/m 0 min 0 min 9 W/m 0,0 km/h (0 Bft) 93,62 %
06.01.2018 08:56 2,1 C 1,1 C 0,0 C 93 % 1 lf 1004,7 hPa 0,0 l/m 0 min 0 min 10 W/m 2,3 km/h (1 Bft) 95,83 %
06.01.2018 08:58 2,1 C 1,1 C 0,0 C 93 % 2 lf 1004,6 hPa 0,0 l/m 0 min 0 min 11 W/m 2,3 km/h (1 Bft) 95,65 %
06.01.2018 09:00 2,1 C 1,1 C 0,0 C 93 % 2 lf 1004,7 hPa 0,0 l/m 0 min 0 min 12 W/m 0,0 km/h (0 Bft) 93,62 %
06.01.2018 09:02 2,1 C 1,1 C 0,0 C 93 % 2 lf 1004,7 hPa 0,0 l/m 0 min 0 min 13 W/m 0,0 km/h (0 Bft) 97,62 %
06.01.2018 09:04 2,1 C 1,1 C 0,0 C 93 % 2 lf 1004,7 hPa 0,0 l/m 0 min 0 min 15 W/m 0,0 km/h (0 Bft) 91,30 %
06.01.2018 09:06 2,1 C 1,1 C 0,0 C 93 % 2 lf 1004,8 hPa 0,0 l/m 0 min 0 min 17 W/m 0,0 km/h (0 Bft) 93,62 %
06.01.2018 09:08 2,0 C 1,1 C 0,0 C 93 % 2 lf 1004,9 hPa 0,0 l/m 0 min 0 min 20 W/m 0,0 km/h (0 Bft) 95,74 %
06.01.2018 09:10 2,0 C 1,1 C 0,6 C 93 % 2 lf 1005,0 hPa 0,0 l/m 0 min 0 min 21 W/m 0,0 km/h (0 Bft) 95,83 %
06.01.2018 09:12 2,0 C 1,1 C 0,6 C 93 % 2 lf 1005,0 hPa 0,0 l/m 0 min 0 min 21 W/m 0,0 km/h (0 Bft) 95,74 %
06.01.2018 09:14 2,0 C 1,7 C 0,6 C 93 % 2 lf 1004,9 hPa 0,0 l/m 0 min 0 min 21 W/m 2,3 km/h (1 Bft) 93,62 %
06.01.2018 09:16 1,9 C 1,7 C 0,6 C 93 % 2 lf 1005,0 hPa 0,0 l/m 0 min 0 min 21 W/m 2,3 km/h (1 Bft) 93,62 %
06.01.2018 09:18 1,9 C 1,7 C 0,6 C 93 % 1 lf 1005,0 hPa 0,0 l/m 0 min 0 min 23 W/m 2,3 km/h (1 Bft) 95,74 %
06.01.2018 09:20 1,9 C 1,7 C 0,6 C 93 % 1 lf 1005,1 hPa 0,0 l/m 0 min 0 min 24 W/m 2,3 km/h (1 Bft) 95,83 %
06.01.2018 09:22 1,9 C 1,7 C 0,6 C 93 % 1 lf 1005,1 hPa 0,0 l/m 0 min 0 min 26 W/m 0,0 km/h (0 Bft) 97,87 %
06.01.2018 09:24 1,9 C 1,7 C 0,6 C 93 % 1 lf 1005,1 hPa 0,0 l/m 0 min 0 min 29 W/m 0,0 km/h (0 Bft) 100,00 %
06.01.2018 09:26 1,9 C 2,2 C 0,6 C 93 % 1 lf 1005,1 hPa 0,0 l/m 0 min 0 min 31 W/m 2,3 km/h (1 Bft) 95,65 %
06.01.2018 09:28 1,9 C 2,2 C 0,6 C 94 % 1 lf 1005,2 hPa 0,0 l/m 0 min 0 min 32 W/m 2,3 km/h (1 Bft) 95,83 %
06.01.2018 09:30 1,9 C 2,2 C 0,6 C 94 % 1 lf 1005,2 hPa 0,0 l/m 0 min 0 min 32 W/m 0,0 km/h (0 Bft) 97,87 %
06.01.2018 09:32 1,9 C 2,2 C 0,6 C 94 % 1 lf 1005,3 hPa 0,0 l/m 0 min 0 min 34 W/m 0,0 km/h (0 Bft) 95,74 %
06.01.2018 09:34 1,9 C 2,2 C 0,6 C 94 % 1 lf 1005,2 hPa 0,0 l/m 0 min 0 min 38 W/m 0,0 km/h (0 Bft) 97,87 %
06.01.2018 09:36 1,9 C 2,2 C 0,6 C 94 % 1 lf 1005,2 hPa 0,0 l/m 0 min 0 min 42 W/m 0,0 km/h (0 Bft) 97,87 %
06.01.2018 09:38 1,9 C 2,2 C 0,6 C 94 % 1 lf 1005,3 hPa 0,0 l/m 0 min 0 min 46 W/m 0,0 km/h (0 Bft) 93,62 %
06.01.2018 09:40 1,9 C 2,2 C 0,6 C 94 % 1 lf 1005,3 hPa 0,0 l/m 0 min 0 min 47 W/m 2,3 km/h (1 Bft) 97,92 %
06.01.2018 09:42 1,9 C 2,2 C 1,1 C 94 % 1 lf 1005,3 hPa 0,0 l/m 0 min 0 min 46 W/m 0,0 km/h (0 Bft) 97,92 %
06.01.2018 09:44 1,9 C 2,2 C 1,1 C 94 % 1 lf 1005,3 hPa 0,0 l/m 0 min 0 min 46 W/m 2,3 km/h (1 Bft) 97,83 %
06.01.2018 09:46 1,9 C 2,2 C 1,1 C 94 % 1 lf 1005,4 hPa 0,0 l/m 0 min 0 min 46 W/m 2,3 km/h (1 Bft) 95,74 %
06.01.2018 09:48 1,9 C 2,2 C 1,1 C 94 % 1 lf 1005,4 hPa 0,0 l/m 0 min 0 min 47 W/m 0,0 km/h (0 Bft) 97,87 %
06.01.2018 09:50 2,0 C 2,8 C 1,1 C 94 % 1 lf 1005,4 hPa 0,0 l/m 0 min 0 min 49 W/m 0,0 km/h (0 Bft) 100,00 %
06.01.2018 09:52 2,0 C 2,8 C 1,1 C 94 % 1 lf 1005,4 hPa 0,0 l/m 0 min 0 min 49 W/m 0,0 km/h (0 Bft) 95,74 %
06.01.2018 09:54 2,1 C 2,8 C 1,1 C 94 % 0 lf 1005,5 hPa 0,0 l/m 0 min 0 min 46 W/m 0,0 km/h (0 Bft) 100,00 %
06.01.2018 09:56 2,1 C 2,8 C 1,1 C 94 % 0 lf 1005,6 hPa 0,0 l/m 0 min 0 min 42 W/m 0,0 km/h (0 Bft) 95,24 %
06.01.2018 09:58 2,1 C 2,8 C 1,1 C 94 % 0 lf 1005,6 hPa 0,0 l/m 0 min 0 min 40 W/m 0,0 km/h (0 Bft) 97,87 %
06.01.2018 10:00 2,1 C 2,8 C 1,1 C 94 % 1 lf 1005,6 hPa 0,0 l/m 0 min 0 min 44 W/m 0,0 km/h (0 Bft) 97,87 %
06.01.2018 10:02 2,1 C 2,8 C 1,7 C 94 % 1 lf 1005,7 hPa 0,0 l/m 0 min 0 min 48 W/m 0,0 km/h (0 Bft) 95,92 %
06.01.2018 10:04 2,1 C 2,8 C 1,7 C 94 % 0 lf 1005,7 hPa 0,0 l/m 0 min 0 min 53 W/m 0,0 km/h (0 Bft) 96,00 %
06.01.2018 10:06 2,1 C 2,8 C 1,7 C 94 % 0 lf 1005,7 hPa 0,0 l/m 0 min 0 min 53 W/m 0,0 km/h (0 Bft) 97,83 %
06.01.2018 10:08 2,2 C 2,8 C 1,7 C 94 % 0 lf 1005,9 hPa 0,0 l/m 0 min 0 min 57 W/m 0,0 km/h (0 Bft) 95,74 %
06.01.2018 10:10 2,2 C 3,3 C 1,7 C 94 % 0 lf 1005,8 hPa 0,0 l/m 0 min 0 min 67 W/m 2,3 km/h (1 Bft) 97,87 %
06.01.2018 10:12 2,2 C 3,3 C 1,7 C 94 % 0 lf 1005,9 hPa 0,0 l/m 0 min 0 min 67 W/m 0,0 km/h (0 Bft) 95,74 %
06.01.2018 10:14 2,2 C 3,3 C 2,2 C 94 % 0 lf 1005,9 hPa 0,0 l/m 0 min 0 min 64 W/m 2,3 km/h (1 Bft) 97,87 %
06.01.2018 10:16 2,2 C 3,3 C 2,2 C 94 % 0 lf 1005,9 hPa 0,0 l/m 0 min 0 min 61 W/m 2,3 km/h (1 Bft) 97,87 %
06.01.2018 10:18 2,2 C 3,3 C 2,2 C 94 % 0 lf 1005,9 hPa 0,0 l/m 0 min 0 min 57 W/m 4,5 km/h (1 Bft) 93,62 %
06.01.2018 10:20 2,3 C 3,3 C 2,2 C 95 % 0 lf 1005,9 hPa 0,0 l/m 0 min 0 min 59 W/m 4,5 km/h (1 Bft) 95,12 %
06.01.2018 10:22 2,3 C 3,9 C 2,2 C 95 % 0 lf 1005,9 hPa 0,0 l/m 0 min 0 min 70 W/m 4,5 km/h (1 Bft) 95,74 %
06.01.2018 10:24 2,3 C 3,9 C 2,2 C 95 % 0 lf 1005,9 hPa 0,0 l/m 0 min 0 min 76 W/m 2,3 km/h (1 Bft) 95,74 %
06.01.2018 10:26 2,4 C 3,9 C 2,2 C 95 % 0 lf 1005,9 hPa 0,0 l/m 0 min 0 min 76 W/m 4,5 km/h (1 Bft) 97,87 %
06.01.2018 10:28 2,4 C 3,9 C 2,8 C 95 % 0 lf 1006,0 hPa 0,0 l/m 0 min 0 min 80 W/m 2,3 km/h (1 Bft) 97,87 %
06.01.2018 10:30 2,4 C 3,9 C 2,8 C 95 % 0 lf 1006,1 hPa 0,0 l/m 0 min 0 min 81 W/m 2,3 km/h (1 Bft) 95,74 %
06.01.2018 10:32 2,5 C 4,4 C 2,8 C 95 % 0 lf 1006,1 hPa 0,0 l/m 0 min 0 min 75 W/m 4,5 km/h (1 Bft) 95,74 %
06.01.2018 10:34 2,5 C 3,9 C 2,8 C 95 % 0 lf 1006,1 hPa 0,0 l/m 0 min 0 min 68 W/m 4,5 km/h (1 Bft) 97,87 %
06.01.2018 10:36 2,6 C 3,9 C 2,8 C 95 % 0 lf 1005,9 hPa 0,0 l/m 0 min 0 min 66 W/m 4,5 km/h (1 Bft) 95,65 %
06.01.2018 10:38 2,7 C 3,9 C 2,8 C 95 % 0 lf 1005,9 hPa 0,0 l/m 0 min 0 min 63 W/m 4,5 km/h (1 Bft) 95,74 %
06.01.2018 10:40 2,7 C 3,9 C 2,8 C 95 % 0 lf 1006,0 hPa 0,0 l/m 0 min 0 min 54 W/m 4,5 km/h (1 Bft) 95,74 %
06.01.2018 10:42 2,7 C 3,9 C 2,8 C 95 % 0 lf 1006,0 hPa 0,0 l/m 0 min 0 min 49 W/m 9,0 km/h (2 Bft) 97,87 %
06.01.2018 10:44 2,8 C 3,9 C 2,8 C 95 % 0 lf 1006,1 hPa 0,0 l/m 0 min 0 min 50 W/m 9,0 km/h (2 Bft) 97,87 %
06.01.2018 10:46 2,8 C 3,9 C 2,8 C 95 % 0 lf 1006,2 hPa 0,0 l/m 0 min 0 min 58 W/m 6,8 km/h (2 Bft) 95,74 %
06.01.2018 10:48 2,9 C 3,9 C 3,3 C 95 % 0 lf 1006,2 hPa 0,0 l/m 0 min 0 min 68 W/m 4,5 km/h (1 Bft) 97,83 %
06.01.2018 10:50 2,9 C 4,4 C 3,3 C 95 % 0 lf 1006,2 hPa 0,0 l/m 0 min 0 min 66 W/m 6,8 km/h (2 Bft) 95,74 %
06.01.2018 10:52 2,9 C 4,4 C 3,3 C 95 % 0 lf 1006,2 hPa 0,0 l/m 0 min 0 min 64 W/m 4,5 km/h (1 Bft) 97,67 %
06.01.2018 10:54 3,0 C 4,4 C 3,3 C 95 % 0 lf 1006,3 hPa 0,0 l/m 0 min 0 min 70 W/m 4,5 km/h (1 Bft) 91,49 %
06.01.2018 10:56 3,1 C 4,4 C 3,3 C 96 % 0 lf 1006,3 hPa 0,0 l/m 0 min 0 min 76 W/m 6,8 km/h (2 Bft) 97,83 %
06.01.2018 10:58 3,1 C 4,4 C 3,9 C 96 % 0 lf 1006,3 hPa 0,0 l/m 0 min 0 min 76 W/m 4,5 km/h (1 Bft) 97,87 %
06.01.2018 11:00 3,2 C 4,4 C 3,9 C 96 % 0 lf 1006,3 hPa 0,0 l/m 0 min 0 min 66 W/m 4,5 km/h (1 Bft) 97,87 %
06.01.2018 11:02 3,2 C 4,4 C 3,9 C 96 % 0 lf 1006,3 hPa 0,0 l/m 0 min 0 min 58 W/m 4,5 km/h (1 Bft) 91,49 %
06.01.2018 11:04 3,2 C 4,4 C 3,9 C 96 % 0 lf 1006,3 hPa 0,0 l/m 0 min 0 min 54 W/m 4,5 km/h (1 Bft) 95,74 %
06.01.2018 11:06 3,3 C 4,4 C 3,9 C 96 % 0 lf 1006,4 hPa 0,0 l/m 0 min 0 min 52 W/m 4,5 km/h (1 Bft) 97,87 %
06.01.2018 11:08 3,3 C 4,4 C 3,9 C 96 % 0 lf 1006,4 hPa 0,0 l/m 0 min 0 min 53 W/m 4,5 km/h (1 Bft) 100,00 %
06.01.2018 11:10 3,3 C 4,4 C 3,9 C 96 % 0 lf 1006,4 hPa 0,0 l/m 0 min 0 min 53 W/m 4,5 km/h (1 Bft) 100,00 %
06.01.2018 11:12 3,3 C 4,4 C 3,9 C 96 % 0 lf 1006,4 hPa 0,0 l/m 0 min 0 min 50 W/m 4,5 km/h (1 Bft) 97,92 %
06.01.2018 11:14 3,4 C 4,4 C 3,9 C 96 % 0 lf 1006,4 hPa 0,0 l/m 0 min 0 min 47 W/m 4,5 km/h (1 Bft) 100,00 %
06.01.2018 11:16 3,4 C 4,4 C 3,9 C 96 % 0 lf 1006,4 hPa 0,0 l/m 0 min 0 min 51 W/m 4,5 km/h (1 Bft) 100,00 %
06.01.2018 11:18 3,4 C 4,4 C 3,9 C 96 % 0 lf 1006,5 hPa 0,0 l/m 0 min 0 min 58 W/m 0,0 km/h (0 Bft) 100,00 %
06.01.2018 11:20 3,4 C 4,4 C 3,9 C 96 % 0 lf 1006,5 hPa 0,0 l/m 0 min 0 min 66 W/m 0,0 km/h (0 Bft) 94,92 %
06.01.2018 11:22 3,5 C 5,0 C 3,9 C 96 % 0 lf 1006,4 hPa 0,0 l/m 0 min 0 min 72 W/m 2,3 km/h (1 Bft) 97,14 %
06.01.2018 11:24 3,5 C 5,0 C 3,9 C 96 % 0 lf 1006,4 hPa 0,0 l/m 0 min 0 min 80 W/m 0,0 km/h (0 Bft) 97,83 %
06.01.2018 11:26 3,6 C 5,0 C 4,4 C 96 % 0 lf 1006,4 hPa 0,0 l/m 0 min 0 min 87 W/m 0,0 km/h (0 Bft) 97,92 %
06.01.2018 11:28 3,6 C 5,6 C 4,4 C 96 % 0 lf 1006,4 hPa 0,0 l/m 0 min 0 min 91 W/m 0,0 km/h (0 Bft) 93,62 %
06.01.2018 11:30 3,6 C 5,6 C 4,4 C 96 % 0 lf 1006,4 hPa 0,0 l/m 0 min 0 min 88 W/m 0,0 km/h (0 Bft) 97,87 %
06.01.2018 11:32 3,7 C 5,6 C 4,4 C 96 % 0 lf 1006,4 hPa 0,0 l/m 0 min 0 min 75 W/m 0,0 km/h (0 Bft) 97,87 %
06.01.2018 11:34 3,7 C 5,6 C 4,4 C 96 % 0 lf 1006,5 hPa 0,0 l/m 0 min 0 min 66 W/m 0,0 km/h (0 Bft) 93,62 %
06.01.2018 11:36 3,7 C 5,6 C 4,4 C 96 % 0 lf 1006,5 hPa 0,0 l/m 0 min 0 min 67 W/m 2,3 km/h (1 Bft) 97,87 %
06.01.2018 11:38 3,7 C 5,6 C 4,4 C 96 % 0 lf 1006,6 hPa 0,0 l/m 0 min 0 min 71 W/m 2,3 km/h (1 Bft) 97,87 %
06.01.2018 11:40 3,8 C 5,6 C 4,4 C 96 % 0 lf 1006,6 hPa 0,0 l/m 0 min 0 min 76 W/m 4,5 km/h (1 Bft) 97,87 %
06.01.2018 11:42 3,8 C 5,6 C 4,4 C 96 % 0 lf 1006,7 hPa 0,0 l/m 0 min 0 min 81 W/m 0,0 km/h (0 Bft) 93,62 %
06.01.2018 11:44 3,8 C 5,6 C 4,4 C 96 % 0 lf 1006,6 hPa 0,0 l/m 0 min 0 min 83 W/m 0,0 km/h (0 Bft) 95,12 %
06.01.2018 11:46 3,9 C 5,6 C 4,4 C 96 % 0 lf 1006,6 hPa 0,0 l/m 0 min 0 min 84 W/m 0,0 km/h (0 Bft) 97,87 %
06.01.2018 11:48 3,9 C 5,6 C 4,4 C 96 % 0 lf 1006,7 hPa 0,0 l/m 0 min 0 min 88 W/m 0,0 km/h (0 Bft) 97,87 %
06.01.2018 11:50 4,0 C 5,6 C 5,0 C 96 % 0 lf 1006,8 hPa 0,0 l/m 0 min 0 min 91 W/m 0,0 km/h (0 Bft) 93,10 %
06.01.2018 11:52 4,0 C 5,6 C 5,0 C 96 % 0 lf 1006,8 hPa 0,0 l/m 0 min 0 min 95 W/m 0,0 km/h (0 Bft) 97,22 %
06.01.2018 11:54 4,1 C 5,6 C 5,0 C 96 % 0 lf 1006,9 hPa 0,0 l/m 0 min 0 min 95 W/m 0,0 km/h (0 Bft) 93,75 %
06.01.2018 11:56 4,1 C 5,6 C 5,0 C 96 % 0 lf 1006,8 hPa 0,0 l/m 0 min 0 min 97 W/m 0,0 km/h (0 Bft) 95,83 %
06.01.2018 11:58 4,1 C 6,1 C 5,0 C 96 % 0 lf 1006,8 hPa 0,0 l/m 0 min 0 min 109 W/m 0,0 km/h (0 Bft) 95,74 %
06.01.2018 12:00 4,2 C 6,1 C 5,0 C 96 % 0 lf 1006,8 hPa 0,0 l/m 0 min 0 min 113 W/m 0,0 km/h (0 Bft) 93,48 %
06.01.2018 12:02 4,2 C 6,1 C 5,6 C 96 % 0 lf 1006,8 hPa 0,0 l/m 0 min 0 min 105 W/m 0,0 km/h (0 Bft) 91,49 %
06.01.2018 12:04 4,2 C 6,1 C 5,6 C 96 % 0 lf 1006,9 hPa 0,0 l/m 0 min 0 min 96 W/m 0,0 km/h (0 Bft) 97,87 %
06.01.2018 12:06 4,3 C 6,1 C 5,6 C 96 % 0 lf 1006,9 hPa 0,0 l/m 0 min 0 min 90 W/m 0,0 km/h (0 Bft) 97,92 %
06.01.2018 12:08 4,3 C 5,6 C 5,0 C 96 % 0 lf 1006,9 hPa 0,0 l/m 0 min 0 min 83 W/m 0,0 km/h (0 Bft) 97,92 %
06.01.2018 12:10 4,3 C 6,1 C 5,0 C 96 % 0 lf 1007,0 hPa 0,0 l/m 0 min 0 min 80 W/m 0,0 km/h (0 Bft) 97,87 %
06.01.2018 12:12 4,4 C 5,6 C 5,0 C 96 % 0 lf 1007,0 hPa 0,0 l/m 0 min 0 min 76 W/m 0,0 km/h (0 Bft) 100,00 %
06.01.2018 12:14 4,4 C 5,6 C 5,0 C 96 % 0 lf 1007,0 hPa 0,0 l/m 0 min 0 min 71 W/m 0,0 km/h (0 Bft) 97,87 %
06.01.2018 12:16 4,4 C 5,6 C 5,0 C 96 % 0 lf 1007,0 hPa 0,0 l/m 0 min 0 min 70 W/m 0,0 km/h (0 Bft) 93,75 %
06.01.2018 12:18 4,4 C 5,6 C 5,0 C 96 % 0 lf 1007,0 hPa 0,0 l/m 0 min 0 min 72 W/m 0,0 km/h (0 Bft) 93,62 %
06.01.2018 12:20 4,5 C 5,6 C 5,0 C 96 % 0 lf 1007,1 hPa 0,0 l/m 0 min 0 min 72 W/m 0,0 km/h (0 Bft) 95,74 %
06.01.2018 12:22 4,6 C 5,6 C 5,0 C 96 % 0 lf 1007,1 hPa 0,0 l/m 0 min 0 min 72 W/m 0,0 km/h (0 Bft) 95,74 %
06.01.2018 12:24 4,6 C 5,6 C 5,0 C 96 % 0 lf 1007,1 hPa 0,0 l/m 0 min 0 min 70 W/m 0,0 km/h (0 Bft) 97,87 %
06.01.2018 12:26 4,6 C 5,6 C 5,0 C 96 % 0 lf 1007,1 hPa 0,0 l/m 0 min 0 min 69 W/m 0,0 km/h (0 Bft) 95,74 %
06.01.2018 12:28 4,6 C 6,1 C 5,0 C 96 % 0 lf 1007,0 hPa 0,0 l/m 0 min 0 min 68 W/m 0,0 km/h (0 Bft) 97,87 %
06.01.2018 12:30 4,6 C 6,1 C 5,0 C 96 % 0 lf 1007,0 hPa 0,0 l/m 0 min 0 min 70 W/m 0,0 km/h (0 Bft) 97,56 %
06.01.2018 12:32 4,7 C 6,1 C 5,0 C 96 % 0 lf 1007,0 hPa 0,0 l/m 0 min 0 min 73 W/m 0,0 km/h (0 Bft) 93,75 %
06.01.2018 12:34 4,7 C 6,1 C 5,0 C 96 % 0 lf 1007,0 hPa 0,0 l/m 0 min 0 min 72 W/m 0,0 km/h (0 Bft) 97,87 %
06.01.2018 12:36 4,7 C 6,1 C 5,0 C 96 % 0 lf 1007,1 hPa 0,0 l/m 0 min 0 min 70 W/m 0,0 km/h (0 Bft) 95,74 %
06.01.2018 12:38 4,7 C 6,1 C 5,0 C 96 % 0 lf 1007,1 hPa 0,0 l/m 0 min 0 min 71 W/m 0,0 km/h (0 Bft) 97,87 %
06.01.2018 12:40 4,8 C 6,1 C 5,0 C 96 % 0 lf 1007,1 hPa 0,0 l/m 0 min 0 min 74 W/m 0,0 km/h (0 Bft) 95,74 %
06.01.2018 12:42 4,8 C 6,1 C 5,0 C 96 % 0 lf 1007,1 hPa 0,0 l/m 0 min 0 min 78 W/m 0,0 km/h (0 Bft) 97,87 %
06.01.2018 12:44 4,8 C 6,1 C 5,0 C 96 % 0 lf 1007,1 hPa 0,0 l/m 0 min 0 min 83 W/m 0,0 km/h (0 Bft) 97,92 %
06.01.2018 12:46 4,8 C 6,1 C 5,0 C 96 % 0 lf 1007,0 hPa 0,0 l/m 0 min 0 min 88 W/m 0,0 km/h (0 Bft) 97,83 %
06.01.2018 12:48 4,9 C 6,1 C 5,6 C 96 % 0 lf 1007,0 hPa 0,0 l/m 0 min 0 min 89 W/m 0,0 km/h (0 Bft) 93,75 %
06.01.2018 12:50 4,9 C 6,1 C 5,6 C 96 % 0 lf 1007,0 hPa 0,0 l/m 0 min 0 min 84 W/m 0,0 km/h (0 Bft) 96,67 %
06.01.2018 12:52 4,9 C 6,1 C 5,6 C 96 % 0 lf 1007,0 hPa 0,0 l/m 0 min 0 min 82 W/m 0,0 km/h (0 Bft) 91,67 %
06.01.2018 12:54 4,9 C 6,1 C 5,6 C 96 % 0 lf 1007,0 hPa 0,0 l/m 0 min 0 min 88 W/m 0,0 km/h (0 Bft) 97,83 %
06.01.2018 12:56 4,9 C 6,1 C 5,6 C 96 % 0 lf 1007,1 hPa 0,0 l/m 0 min 0 min 98 W/m 0,0 km/h (0 Bft) 95,74 %
06.01.2018 12:58 5,0 C 6,1 C 5,6 C 96 % 0 lf 1007,1 hPa 0,0 l/m 0 min 0 min 105 W/m 0,0 km/h (0 Bft) 95,74 %
06.01.2018 13:00 5,1 C 6,7 C 5,6 C 96 % 0 lf 1007,1 hPa 0,0 l/m 0 min 0 min 110 W/m 0,0 km/h (0 Bft) 97,87 %
06.01.2018 13:02 5,1 C 6,7 C 5,6 C 96 % 0 lf 1007,1 hPa 0,0 l/m 0 min 0 min 115 W/m 0,0 km/h (0 Bft) 95,74 %
06.01.2018 13:04 5,1 C 6,7 C 6,1 C 96 % 0 lf 1007,1 hPa 0,0 l/m 0 min 0 min 111 W/m 0,0 km/h (0 Bft) 97,87 %
06.01.2018 13:06 5,1 C 6,7 C 6,1 C 96 % 0 lf 1007,1 hPa 0,0 l/m 0 min 0 min 103 W/m 0,0 km/h (0 Bft) 97,56 %
06.01.2018 13:08 5,1 C 6,7 C 6,1 C 96 % 0 lf 1007,1 hPa 0,0 l/m 0 min 0 min 100 W/m 0,0 km/h (0 Bft) 93,62 %
06.01.2018 13:10 5,2 C 6,7 C 5,6 C 96 % 0 lf 1007,1 hPa 0,0 l/m 0 min 0 min 98 W/m 0,0 km/h (0 Bft) 95,65 %
06.01.2018 13:12 5,2 C 6,7 C 5,6 C 96 % 0 lf 1007,1 hPa 0,0 l/m 0 min 0 min 94 W/m 0,0 km/h (0 Bft) 95,74 %
06.01.2018 13:14 5,2 C 6,7 C 5,6 C 96 % 0 lf 1007,1 hPa 0,0 l/m 0 min 0 min 88 W/m 0,0 km/h (0 Bft) 93,62 %
06.01.2018 13:16 5,2 C 6,7 C 5,6 C 96 % 0 lf 1007,2 hPa 0,0 l/m 0 min 0 min 80 W/m 0,0 km/h (0 Bft) 95,74 %
06.01.2018 13:18 5,3 C 6,7 C 5,6 C 96 % 0 lf 1007,2 hPa 0,0 l/m 0 min 0 min 75 W/m 0,0 km/h (0 Bft) 97,87 %
06.01.2018 13:20 5,3 C 6,7 C 5,6 C 96 % 0 lf 1007,2 hPa 0,0 l/m 0 min 0 min 70 W/m 0,0 km/h (0 Bft) 94,83 %
06.01.2018 13:22 5,3 C 6,7 C 5,6 C 96 % 0 lf 1007,2 hPa 0,0 l/m 0 min 0 min 69 W/m 0,0 km/h (0 Bft) 97,14 %
06.01.2018 13:24 5,3 C 6,7 C 5,6 C 96 % 0 lf 1007,3 hPa 0,0 l/m 0 min 0 min 75 W/m 0,0 km/h (0 Bft) 97,92 %
06.01.2018 13:26 5,3 C 6,7 C 5,6 C 95 % 0 lf 1007,2 hPa 0,0 l/m 0 min 0 min 77 W/m 0,0 km/h (0 Bft) 91,49 %
06.01.2018 13:28 5,4 C 6,7 C 5,6 C 95 % 0 lf 1007,3 hPa 0,0 l/m 0 min 0 min 73 W/m 0,0 km/h (0 Bft) 97,87 %
06.01.2018 13:30 5,4 C 6,1 C 5,6 C 95 % 0 lf 1007,2 hPa 0,0 l/m 0 min 0 min 68 W/m 0,0 km/h (0 Bft) 95,74 %
06.01.2018 13:32 5,4 C 6,1 C 5,6 C 95 % 0 lf 1007,2 hPa 0,0 l/m 0 min 0 min 66 W/m 0,0 km/h (0 Bft) 95,74 %
06.01.2018 13:34 5,4 C 6,1 C 5,6 C 95 % 0 lf 1007,2 hPa 0,0 l/m 0 min 0 min 63 W/m 0,0 km/h (0 Bft) 97,83 %
06.01.2018 13:36 5,4 C 6,1 C 5,6 C 95 % 0 lf 1007,2 hPa 0,0 l/m 0 min 0 min 62 W/m 0,0 km/h (0 Bft) 97,87 %
06.01.2018 13:38 5,4 C 6,1 C 5,6 C 95 % 0 lf 1007,2 hPa 0,0 l/m 0 min 0 min 62 W/m 0,0 km/h (0 Bft) 95,74 %
06.01.2018 13:40 5,4 C 6,1 C 5,6 C 95 % 0 lf 1007,2 hPa 0,0 l/m 0 min 0 min 64 W/m 0,0 km/h (0 Bft) 97,87 %
06.01.2018 13:42 5,4 C 6,1 C 5,6 C 95 % 0 lf 1007,2 hPa 0,0 l/m 0 min 0 min 68 W/m 0,0 km/h (0 Bft) 93,62 %
06.01.2018 13:44 5,4 C 6,1 C 5,6 C 95 % 0 lf 1007,2 hPa 0,0 l/m 0 min 0 min 69 W/m 0,0 km/h (0 Bft) 95,74 %
06.01.2018 13:46 5,5 C 6,7 C 5,6 C 95 % 0 lf 1007,2 hPa 0,0 l/m 0 min 0 min 69 W/m 0,0 km/h (0 Bft) 97,92 %
06.01.2018 13:48 5,5 C 6,7 C 5,6 C 95 % 0 lf 1007,2 hPa 0,0 l/m 0 min 0 min 72 W/m 0,0 km/h (0 Bft) 95,74 %
06.01.2018 13:50 5,5 C 6,7 C 5,6 C 95 % 0 lf 1007,2 hPa 0,0 l/m 0 min 0 min 78 W/m 6,8 km/h (2 Bft) 96,61 %
06.01.2018 13:52 5,6 C 6,7 C 5,6 C 95 % 0 lf 1007,2 hPa 0,0 l/m 0 min 0 min 85 W/m 9,0 km/h (2 Bft) 94,29 %
06.01.2018 13:54 5,6 C 6,7 C 5,6 C 95 % 0 lf 1007,2 hPa 0,0 l/m 0 min 0 min 86 W/m 11,3 km/h (2 Bft) 95,74 %
06.01.2018 13:56 5,6 C 6,7 C 5,6 C 95 % 0 lf 1007,2 hPa 0,0 l/m 0 min 0 min 83 W/m 9,0 km/h (2 Bft) 95,65 %
06.01.2018 13:58 5,6 C 6,7 C 5,6 C 95 % 0 lf 1007,2 hPa 0,0 l/m 0 min 0 min 80 W/m 6,8 km/h (2 Bft) 95,74 %
06.01.2018 14:00 5,6 C 6,7 C 5,6 C 94 % 0 lf 1007,2 hPa 0,0 l/m 0 min 0 min 81 W/m 6,8 km/h (2 Bft) 95,74 %
06.01.2018 14:02 5,6 C 6,7 C 5,6 C 95 % 0 lf 1007,2 hPa 0,0 l/m 0 min 0 min 87 W/m 4,5 km/h (1 Bft) 97,87 %
06.01.2018 14:04 5,7 C 6,7 C 5,6 C 95 % 0 lf 1007,4 hPa 0,0 l/m 0 min 0 min 94 W/m 4,5 km/h (1 Bft) 97,87 %
06.01.2018 14:08 5,7 C 7,2 C 6,1 C 94 % 0 lf 1007,5 hPa 0,0 l/m 0 min 0 min 99 W/m 4,5 km/h (1 Bft) 95,74 %
06.01.2018 14:10 5,7 C 7,2 C 6,1 C 94 % 0 lf 1007,6 hPa 0,0 l/m 0 min 0 min 93 W/m 4,5 km/h (1 Bft) 93,62 %
06.01.2018 14:12 5,7 C 6,7 C 6,1 C 94 % 0 lf 1007,7 hPa 0,0 l/m 0 min 0 min 83 W/m 0,0 km/h (0 Bft) 95,74 %
06.01.2018 14:14 5,7 C 6,7 C 6,1 C 94 % 0 lf 1007,7 hPa 0,0 l/m 0 min 0 min 76 W/m 4,5 km/h (1 Bft) 95,83 %
06.01.2018 14:16 5,8 C 6,7 C 6,1 C 94 % 0 lf 1007,7 hPa 0,0 l/m 0 min 0 min 71 W/m 4,5 km/h (1 Bft) 95,74 %
06.01.2018 14:18 5,8 C 6,7 C 5,6 C 94 % 0 lf 1007,7 hPa 0,0 l/m 0 min 0 min 70 W/m 2,3 km/h (1 Bft) 95,74 %
06.01.2018 14:20 5,8 C 6,7 C 5,6 C 94 % 0 lf 1007,7 hPa 0,0 l/m 0 min 0 min 70 W/m 2,3 km/h (1 Bft) 95,65 %
06.01.2018 14:22 5,8 C 6,7 C 5,6 C 94 % 0 lf 1007,7 hPa 0,0 l/m 0 min 0 min 69 W/m 0,0 km/h (0 Bft) 93,88 %
06.01.2018 14:24 5,8 C 6,7 C 5,6 C 94 % 0 lf 1007,7 hPa 0,0 l/m 0 min 0 min 67 W/m 2,3 km/h (1 Bft) 97,87 %
06.01.2018 14:26 5,8 C 6,7 C 5,6 C 94 % 0 lf 1007,8 hPa 0,0 l/m 0 min 0 min 63 W/m 4,5 km/h (1 Bft) 95,65 %
06.01.2018 14:28 5,8 C 6,7 C 5,6 C 94 % 0 lf 1007,7 hPa 0,0 l/m 0 min 0 min 60 W/m 6,8 km/h (2 Bft) 97,87 %
06.01.2018 14:30 5,9 C 6,1 C 5,6 C 94 % 0 lf 1007,8 hPa 0,0 l/m 0 min 0 min 62 W/m 6,8 km/h (2 Bft) 95,74 %
06.01.2018 14:32 5,9 C 6,1 C 5,6 C 94 % 0 lf 1007,7 hPa 0,0 l/m 0 min 0 min 65 W/m 4,5 km/h (1 Bft) 95,74 %
06.01.2018 14:34 5,9 C 6,7 C 5,6 C 94 % 0 lf 1007,8 hPa 0,0 l/m 0 min 0 min 70 W/m 4,5 km/h (1 Bft) 95,74 %
06.01.2018 14:36 5,9 C 6,7 C 5,6 C 94 % 0 lf 1007,8 hPa 0,0 l/m 0 min 0 min 76 W/m 4,5 km/h (1 Bft) 95,74 %
06.01.2018 14:38 5,9 C 6,7 C 5,6 C 94 % 0 lf 1007,8 hPa 0,0 l/m 0 min 0 min 84 W/m 4,5 km/h (1 Bft) 97,83 %
06.01.2018 14:40 5,9 C 6,7 C 5,6 C 94 % 0 lf 1007,8 hPa 0,0 l/m 0 min 0 min 86 W/m 2,3 km/h (1 Bft) 97,87 %
06.01.2018 14:42 5,9 C 6,7 C 6,1 C 93 % 0 lf 1007,8 hPa 0,0 l/m 0 min 0 min 84 W/m 0,0 km/h (0 Bft) 95,74 %
06.01.2018 14:44 5,9 C 6,7 C 6,1 C 93 % 0 lf 1007,9 hPa 0,0 l/m 0 min 0 min 83 W/m 2,3 km/h (1 Bft) 93,62 %
06.01.2018 14:46 5,9 C 6,7 C 6,1 C 93 % 0 lf 1007,9 hPa 0,0 l/m 0 min 0 min 84 W/m 2,3 km/h (1 Bft) 97,87 %
06.01.2018 14:48 5,9 C 7,2 C 6,1 C 93 % 0 lf 1008,0 hPa 0,0 l/m 0 min 0 min 85 W/m 0,0 km/h (0 Bft) 95,74 %
06.01.2018 14:50 6,0 C 7,2 C 6,1 C 93 % 0 lf 1008,1 hPa 0,0 l/m 0 min 0 min 82 W/m 0,0 km/h (0 Bft) 97,83 %
06.01.2018 14:52 6,0 C 7,2 C 6,1 C 93 % 0 lf 1008,1 hPa 0,0 l/m 0 min 0 min 78 W/m 0,0 km/h (0 Bft) 93,62 %
06.01.2018 14:54 6,0 C 7,2 C 6,1 C 93 % 0 lf 1008,1 hPa 0,0 l/m 0 min 0 min 75 W/m 0,0 km/h (0 Bft) 100,00 %
06.01.2018 14:56 6,1 C 7,2 C 6,1 C 93 % 0 lf 1008,1 hPa 0,0 l/m 0 min 0 min 71 W/m 0,0 km/h (0 Bft) 100,00 %
06.01.2018 14:58 6,1 C 7,2 C 6,1 C 93 % 0 lf 1008,1 hPa 0,0 l/m 0 min 0 min 70 W/m 0,0 km/h (0 Bft) 100,00 %
06.01.2018 15:00 6,1 C 7,2 C 6,1 C 93 % 0 lf 1008,2 hPa 0,0 l/m 0 min 0 min 70 W/m 0,0 km/h (0 Bft) 100,00 %
06.01.2018 15:02 6,1 C 7,2 C 6,1 C 93 % 0 lf 1008,1 hPa 0,0 l/m 0 min 0 min 67 W/m 0,0 km/h (0 Bft) 100,00 %
06.01.2018 15:04 6,1 C 7,2 C 5,6 C 93 % 0 lf 1008,2 hPa 0,0 l/m 0 min 0 min 59 W/m 4,5 km/h (1 Bft) 100,00 %
06.01.2018 15:08 6,1 C 7,2 C 5,6 C 93 % 0 lf 1008,3 hPa 0,0 l/m 0 min 0 min 53 W/m 4,5 km/h (1 Bft) 100,00 %
06.01.2018 15:10 6,1 C 6,7 C 5,6 C 93 % 0 lf 1008,3 hPa 0,0 l/m 0 min 0 min 53 W/m 6,8 km/h (2 Bft) 97,87 %
06.01.2018 15:12 6,1 C 6,7 C 5,6 C 93 % 0 lf 1008,4 hPa 0,0 l/m 0 min 0 min 53 W/m 4,5 km/h (1 Bft) 97,87 %
06.01.2018 15:14 6,1 C 6,7 C 5,6 C 93 % 0 lf 1008,4 hPa 0,0 l/m 0 min 0 min 53 W/m 4,5 km/h (1 Bft) 97,87 %
06.01.2018 15:16 6,2 C 6,7 C 5,6 C 93 % 0 lf 1008,4 hPa 0,0 l/m 0 min 0 min 49 W/m 4,5 km/h (1 Bft) 97,83 %
06.01.2018 15:18 6,1 C 6,7 C 5,6 C 93 % 0 lf 1008,4 hPa 0,0 l/m 0 min 0 min 47 W/m 6,8 km/h (2 Bft) 100,00 %
06.01.2018 15:20 6,2 C 6,7 C 5,6 C 93 % 0 lf 1008,4 hPa 0,0 l/m 0 min 0 min 43 W/m 6,8 km/h (2 Bft) 97,87 %
06.01.2018 15:22 6,2 C 6,7 C 5,0 C 93 % 0 lf 1008,5 hPa 0,0 l/m 0 min 0 min 41 W/m 6,8 km/h (2 Bft) 97,87 %
06.01.2018 15:24 6,2 C 6,1 C 5,0 C 93 % 0 lf 1008,5 hPa 0,0 l/m 0 min 0 min 43 W/m 6,8 km/h (2 Bft) 100,00 %
06.01.2018 15:26 6,2 C 6,1 C 5,0 C 93 % 0 lf 1008,5 hPa 0,0 l/m 0 min 0 min 45 W/m 6,8 km/h (2 Bft) 93,62 %
06.01.2018 15:28 6,2 C 6,1 C 5,0 C 93 % 0 lf 1008,6 hPa 0,0 l/m 0 min 0 min 39 W/m 6,8 km/h (2 Bft) 97,83 %
06.01.2018 15:30 6,2 C 6,1 C 5,0 C 93 % 0 lf 1008,6 hPa 0,0 l/m 0 min 0 min 31 W/m 4,5 km/h (1 Bft) 100,00 %
06.01.2018 15:32 6,2 C 6,1 C 5,0 C 93 % 0 lf 1008,6 hPa 0,0 l/m 0 min 0 min 27 W/m 6,8 km/h (2 Bft) 100,00 %
06.01.2018 15:34 6,1 C 6,1 C 5,0 C 93 % 0 lf 1008,6 hPa 0,0 l/m 0 min 0 min 25 W/m 6,8 km/h (2 Bft) 97,87 %
06.01.2018 15:36 6,2 C 6,1 C 5,0 C 93 % 0 lf 1008,6 hPa 0,0 l/m 0 min 0 min 25 W/m 9,0 km/h (2 Bft) 100,00 %
06.01.2018 15:38 6,1 C 6,1 C 5,0 C 92 % 0 lf 1008,6 hPa 0,0 l/m 0 min 0 min 26 W/m 9,0 km/h (2 Bft) 95,74 %
06.01.2018 15:40 6,1 C 6,1 C 5,0 C 93 % 0 lf 1008,5 hPa 0,0 l/m 0 min 0 min 30 W/m 6,8 km/h (2 Bft) 100,00 %
06.01.2018 15:42 6,1 C 6,1 C 5,0 C 93 % 0 lf 1008,6 hPa 0,0 l/m 0 min 0 min 33 W/m 6,8 km/h (2 Bft) 95,74 %
06.01.2018 15:44 6,1 C 6,1 C 5,0 C 93 % 0 lf 1008,6 hPa 0,0 l/m 0 min 0 min 33 W/m 6,8 km/h (2 Bft) 100,00 %
06.01.2018 15:46 6,1 C 6,1 C 5,0 C 93 % 0 lf 1008,6 hPa 0,0 l/m 0 min 0 min 34 W/m 6,8 km/h (2 Bft) 100,00 %
06.01.2018 15:48 6,1 C 6,1 C 5,0 C 93 % 0 lf 1008,6 hPa 0,0 l/m 0 min 0 min 35 W/m 4,5 km/h (1 Bft) 95,74 %
06.01.2018 15:50 6,1 C 6,1 C 5,0 C 93 % 0 lf 1008,7 hPa 0,0 l/m 0 min 0 min 32 W/m 6,8 km/h (2 Bft) 97,87 %
06.01.2018 15:52 6,1 C 6,1 C 5,0 C 93 % 0 lf 1008,7 hPa 0,0 l/m 0 min 0 min 28 W/m 6,8 km/h (2 Bft) 95,65 %
06.01.2018 15:54 6,1 C 6,1 C 5,0 C 93 % 0 lf 1008,7 hPa 0,0 l/m 0 min 0 min 25 W/m 9,0 km/h (2 Bft) 95,74 %
06.01.2018 15:56 6,1 C 6,1 C 5,0 C 93 % 0 lf 1008,7 hPa 0,0 l/m 0 min 0 min 23 W/m 9,0 km/h (2 Bft) 93,62 %
06.01.2018 15:58 6,1 C 6,1 C 5,0 C 93 % 0 lf 1008,7 hPa 0,0 l/m 0 min 0 min 23 W/m 9,0 km/h (2 Bft) 93,62 %
06.01.2018 16:00 6,1 C 6,1 C 5,0 C 93 % 0 lf 1008,7 hPa 0,0 l/m 0 min 0 min 22 W/m 9,0 km/h (2 Bft) 91,49 %
06.01.2018 16:02 6,1 C 6,1 C 5,0 C 93 % 0 lf 1008,7 hPa 0,0 l/m 0 min 0 min 21 W/m 9,0 km/h (2 Bft) 95,74 %
06.01.2018 16:04 6,0 C 5,6 C 4,4 C 93 % 0 lf 1008,6 hPa 0,0 l/m 0 min 0 min 20 W/m 6,8 km/h (2 Bft) 93,48 %
06.01.2018 16:06 6,0 C 5,6 C 4,4 C 93 % 0 lf 1008,6 hPa 0,0 l/m 0 min 0 min 19 W/m 9,0 km/h (2 Bft) 91,49 %
06.01.2018 16:08 6,0 C 5,6 C 4,4 C 93 % 0 lf 1008,7 hPa 0,0 l/m 0 min 0 min 18 W/m 6,8 km/h (2 Bft) 93,62 %
06.01.2018 16:10 6,0 C 5,6 C 4,4 C 93 % 0 lf 1008,7 hPa 0,0 l/m 0 min 0 min 16 W/m 6,8 km/h (2 Bft) 93,62 %
06.01.2018 16:12 6,0 C 5,6 C 4,4 C 93 % 0 lf 1008,7 hPa 0,0 l/m 0 min 0 min 14 W/m 6,8 km/h (2 Bft) 91,49 %
06.01.2018 16:14 6,0 C 5,6 C 4,4 C 93 % 0 lf 1008,8 hPa 0,0 l/m 0 min 0 min 14 W/m 6,8 km/h (2 Bft) 91,30 %
06.01.2018 16:16 5,9 C 5,6 C 4,4 C 93 % 0 lf 1008,7 hPa 0,0 l/m 0 min 0 min 13 W/m 9,0 km/h (2 Bft) 87,23 %
06.01.2018 16:18 5,9 C 5,6 C 4,4 C 93 % 0 lf 1008,7 hPa 0,0 l/m 0 min 0 min 12 W/m 6,8 km/h (2 Bft) 93,62 %
06.01.2018 16:20 5,9 C 5,6 C 4,4 C 93 % 0 lf 1008,9 hPa 0,0 l/m 0 min 0 min 11 W/m 6,8 km/h (2 Bft) 93,62 %
06.01.2018 16:22 5,9 C 5,6 C 4,4 C 93 % 0 lf 1008,8 hPa 0,0 l/m 0 min 0 min 11 W/m 9,0 km/h (2 Bft) 93,62 %
06.01.2018 16:24 5,9 C 5,6 C 4,4 C 93 % 0 lf 1008,8 hPa 0,0 l/m 0 min 0 min 9 W/m 9,0 km/h (2 Bft) 93,62 %
06.01.2018 16:26 5,9 C 5,6 C 4,4 C 93 % 0 lf 1009,0 hPa 0,0 l/m 0 min 0 min 8 W/m 11,3 km/h (2 Bft) 95,65 %
06.01.2018 16:28 5,9 C 5,6 C 4,4 C 93 % 0 lf 1009,0 hPa 0,0 l/m 0 min 0 min 7 W/m 9,0 km/h (2 Bft) 95,74 %
06.01.2018 16:30 5,8 C 5,6 C 4,4 C 93 % 0 lf 1009,0 hPa 0,0 l/m 0 min 0 min 7 W/m 11,3 km/h (2 Bft) 93,62 %
06.01.2018 16:32 5,8 C 5,6 C 4,4 C 93 % 0 lf 1009,0 hPa 0,0 l/m 0 min 0 min 6 W/m 11,3 km/h (2 Bft) 95,74 %
06.01.2018 16:34 5,8 C 5,6 C 4,4 C 92 % 0 lf 1009,0 hPa 0,0 l/m 0 min 0 min 5 W/m 11,3 km/h (2 Bft) 89,36 %
06.01.2018 16:36 5,8 C 5,6 C 4,4 C 92 % 0 lf 1009,0 hPa 0,0 l/m 0 min 0 min 5 W/m 11,3 km/h (2 Bft) 93,62 %
06.01.2018 16:38 5,8 C 5,6 C 4,4 C 93 % 0 lf 1009,1 hPa 0,0 l/m 0 min 0 min 0 W/m 11,3 km/h (2 Bft) 95,65 %
06.01.2018 16:40 5,7 C 5,6 C 4,4 C 93 % 0 lf 1009,1 hPa 0,0 l/m 0 min 0 min 0 W/m 9,0 km/h (2 Bft) 95,74 %
06.01.2018 16:42 5,7 C 5,6 C 4,4 C 93 % 0 lf 1009,1 hPa 0,0 l/m 0 min 0 min 0 W/m 15,8 km/h (3 Bft) 97,87 %
06.01.2018 16:44 5,7 C 5,6 C 4,4 C 93 % 0 lf 1009,1 hPa 0,0 l/m 0 min 0 min 0 W/m 13,5 km/h (3 Bft) 95,74 %
06.01.2018 16:46 5,7 C 5,6 C 4,4 C 93 % 0 lf 1009,1 hPa 0,0 l/m 0 min 0 min 0 W/m 11,3 km/h (2 Bft) 95,74 %
06.01.2018 16:48 5,7 C 5,6 C 4,4 C 93 % 0 lf 1009,2 hPa 0,0 l/m 0 min 0 min 0 W/m 9,0 km/h (2 Bft) 97,87 %
06.01.2018 16:50 5,7 C 5,6 C 4,4 C 93 % 0 lf 1009,1 hPa 0,0 l/m 0 min 0 min 0 W/m 11,3 km/h (2 Bft) 91,30 %
06.01.2018 16:52 5,7 C 5,6 C 4,4 C 93 % 0 lf 1009,1 hPa 0,0 l/m 0 min 0 min 0 W/m 11,3 km/h (2 Bft) 95,74 %
06.01.2018 16:54 5,7 C 5,6 C 4,4 C 93 % 0 lf 1009,1 hPa 0,0 l/m 0 min 0 min 0 W/m 9,0 km/h (2 Bft) 95,74 %
06.01.2018 16:56 5,6 C 5,6 C 4,4 C 93 % 0 lf 1009,2 hPa 0,0 l/m 0 min 0 min 0 W/m 9,0 km/h (2 Bft) 95,74 %
06.01.2018 16:58 5,6 C 5,6 C 4,4 C 93 % 0 lf 1009,2 hPa 0,0 l/m 0 min 0 min 0 W/m 13,5 km/h (3 Bft) 95,74 %
06.01.2018 17:00 5,6 C 5,6 C 4,4 C 93 % 0 lf 1009,2 hPa 0,0 l/m 0 min 0 min 0 W/m 6,8 km/h (2 Bft) 97,87 %
06.01.2018 17:02 5,6 C 5,6 C 4,4 C 93 % 0 lf 1009,2 hPa 0,0 l/m 0 min 0 min 0 W/m 6,8 km/h (2 Bft) 93,48 %
06.01.2018 17:04 5,6 C 5,6 C 4,4 C 93 % 0 lf 1009,3 hPa 0,0 l/m 0 min 0 min 0 W/m 13,5 km/h (3 Bft) 97,87 %
06.01.2018 17:06 5,6 C 5,6 C 4,4 C 93 % 0 lf 1009,2 hPa 0,0 l/m 0 min 0 min 0 W/m 11,3 km/h (2 Bft) 95,74 %
06.01.2018 17:08 5,6 C 5,6 C 4,4 C 93 % 0 lf 1009,2 hPa 0,0 l/m 0 min 0 min 0 W/m 9,0 km/h (2 Bft) 97,87 %
06.01.2018 17:10 5,6 C 5,6 C 4,4 C 93 % 0 lf 1009,3 hPa 0,0 l/m 0 min 0 min 0 W/m 9,0 km/h (2 Bft) 97,87 %
06.01.2018 17:12 5,6 C 5,6 C 4,4 C 93 % 0 lf 1009,3 hPa 0,0 l/m 0 min 0 min 0 W/m 11,3 km/h (2 Bft) 97,87 %
06.01.2018 17:14 5,6 C 5,0 C 4,4 C 93 % 0 lf 1009,4 hPa 0,0 l/m 0 min 0 min 0 W/m 13,5 km/h (3 Bft) 95,65 %
06.01.2018 17:16 5,6 C 5,0 C 4,4 C 93 % 0 lf 1009,4 hPa 0,0 l/m 0 min 0 min 0 W/m 15,8 km/h (3 Bft) 97,87 %
06.01.2018 17:18 5,6 C 5,0 C 4,4 C 93 % 0 lf 1009,6 hPa 0,0 l/m 0 min 0 min 0 W/m 9,0 km/h (2 Bft) 95,74 %
06.01.2018 17:20 5,6 C 5,0 C 4,4 C 93 % 0 lf 1009,7 hPa 0,0 l/m 0 min 0 min 0 W/m 9,0 km/h (2 Bft) 97,87 %
06.01.2018 17:22 5,5 C 5,0 C 4,4 C 93 % 0 lf 1009,7 hPa 0,0 l/m 0 min 0 min 0 W/m 9,0 km/h (2 Bft) 95,74 %
06.01.2018 17:24 5,5 C 5,0 C 4,4 C 93 % 0 lf 1009,6 hPa 0,0 l/m 0 min 0 min 0 W/m 13,5 km/h (3 Bft) 95,65 %
06.01.2018 17:26 5,5 C 5,0 C 4,4 C 93 % 0 lf 1009,7 hPa 0,0 l/m 0 min 0 min 0 W/m 11,3 km/h (2 Bft) 97,87 %
06.01.2018 17:28 5,5 C 5,0 C 4,4 C 93 % 0 lf 1009,7 hPa 0,0 l/m 0 min 0 min 0 W/m 15,8 km/h (3 Bft) 97,87 %
06.01.2018 17:30 5,5 C 5,0 C 4,4 C 93 % 0 lf 1009,7 hPa 0,0 l/m 0 min 0 min 0 W/m 9,0 km/h (2 Bft) 97,87 %
06.01.2018 17:32 5,5 C 5,0 C 4,4 C 93 % 0 lf 1009,7 hPa 0,0 l/m 0 min 0 min 0 W/m 13,5 km/h (3 Bft) 97,87 %
06.01.2018 17:34 5,5 C 5,0 C 4,4 C 93 % 0 lf 1009,8 hPa 0,0 l/m 0 min 0 min 0 W/m 11,3 km/h (2 Bft) 97,87 %
06.01.2018 17:36 5,5 C 5,0 C 3,9 C 93 % 0 lf 1009,8 hPa 0,0 l/m 0 min 0 min 0 W/m 13,5 km/h (3 Bft) 93,48 %
06.01.2018 17:38 5,4 C 5,0 C 4,4 C 93 % 0 lf 1009,8 hPa 0,0 l/m 0 min 0 min 0 W/m 13,5 km/h (3 Bft) 97,87 %
06.01.2018 17:40 5,4 C 5,0 C 4,4 C 93 % 0 lf 1009,8 hPa 0,0 l/m 0 min 0 min 0 W/m 11,3 km/h (2 Bft) 100,00 %
06.01.2018 17:42 5,4 C 5,0 C 3,9 C 93 % 0 lf 1009,9 hPa 0,0 l/m 0 min 0 min 0 W/m 9,0 km/h (2 Bft) 95,74 %
06.01.2018 17:44 5,4 C 5,0 C 3,9 C 93 % 0 lf 1009,9 hPa 0,0 l/m 0 min 0 min 0 W/m 13,5 km/h (3 Bft) 100,00 %
06.01.2018 17:46 5,4 C 5,0 C 3,9 C 93 % 0 lf 1009,9 hPa 0,0 l/m 0 min 0 min 0 W/m 15,8 km/h (3 Bft) 97,87 %
06.01.2018 17:48 5,4 C 5,0 C 3,9 C 93 % 0 lf 1009,9 hPa 0,0 l/m 0 min 0 min 0 W/m 11,3 km/h (2 Bft) 97,83 %
06.01.2018 17:50 5,4 C 5,0 C 3,9 C 93 % 0 lf 1010,0 hPa 0,0 l/m 0 min 0 min 0 W/m 11,3 km/h (2 Bft) 93,62 %
06.01.2018 17:52 5,4 C 5,0 C 3,9 C 93 % 0 lf 1010,1 hPa 0,0 l/m 0 min 0 min 0 W/m 9,0 km/h (2 Bft) 97,87 %
06.01.2018 17:54 5,4 C 5,0 C 3,9 C 94 % 0 lf 1010,0 hPa 0,0 l/m 0 min 0 min 0 W/m 11,3 km/h (2 Bft) 97,87 %
06.01.2018 17:56 5,4 C 5,0 C 3,9 C 94 % 0 lf 1010,0 hPa 0,0 l/m 0 min 0 min 0 W/m 11,3 km/h (2 Bft) 97,87 %
06.01.2018 17:58 5,4 C 5,0 C 3,9 C 94 % 0 lf 1009,9 hPa 0,0 l/m 0 min 0 min 0 W/m 11,3 km/h (2 Bft) 93,62 %
06.01.2018 18:00 5,4 C 5,0 C 3,9 C 94 % 0 lf 1010,0 hPa 0,0 l/m 0 min 0 min 0 W/m 11,3 km/h (2 Bft) 97,83 %
06.01.2018 18:02 5,4 C 5,0 C 3,9 C 93 % 0 lf 1010,1 hPa 0,0 l/m 0 min 0 min 0 W/m 11,3 km/h (2 Bft) 97,87 %
06.01.2018 18:04 5,3 C 5,0 C 3,9 C 93 % 0 lf 1010,1 hPa 0,0 l/m 0 min 0 min 0 W/m 9,0 km/h (2 Bft) 97,87 %
06.01.2018 18:06 5,3 C 5,0 C 3,9 C 93 % 0 lf 1010,1 hPa 0,0 l/m 0 min 0 min 0 W/m 11,3 km/h (2 Bft) 95,74 %
06.01.2018 18:08 5,3 C 5,0 C 3,9 C 94 % 0 lf 1010,1 hPa 0,0 l/m 0 min 0 min 0 W/m 11,3 km/h (2 Bft) 97,87 %
06.01.2018 18:10 5,3 C 5,0 C 3,9 C 94 % 0 lf 1010,1 hPa 0,0 l/m 0 min 0 min 0 W/m 9,0 km/h (2 Bft) 97,87 %
06.01.2018 18:12 5,3 C 5,0 C 3,9 C 94 % 0 lf 1010,1 hPa 0,0 l/m 0 min 0 min 0 W/m 11,3 km/h (2 Bft) 95,65 %
06.01.2018 18:14 5,3 C 5,0 C 3,9 C 94 % 0 lf 1010,1 hPa 0,0 l/m 0 min 0 min 0 W/m 13,5 km/h (3 Bft) 95,74 %
06.01.2018 18:16 5,3 C 5,0 C 3,9 C 94 % 0 lf 1010,1 hPa 0,0 l/m 0 min 0 min 0 W/m 11,3 km/h (2 Bft) 97,87 %
06.01.2018 18:18 5,3 C 5,0 C 3,9 C 94 % 0 lf 1010,2 hPa 0,0 l/m 0 min 0 min 0 W/m 9,0 km/h (2 Bft) 97,87 %
06.01.2018 18:20 5,3 C 5,0 C 3,9 C 94 % 0 lf 1010,3 hPa 0,0 l/m 0 min 0 min 0 W/m 11,3 km/h (2 Bft) 100,00 %
06.01.2018 18:22 5,3 C 5,0 C 3,9 C 94 % 0 lf 1010,2 hPa 0,0 l/m 0 min 0 min 0 W/m 13,5 km/h (3 Bft) 95,74 %
06.01.2018 18:24 5,3 C 5,0 C 3,9 C 94 % 0 lf 1010,3 hPa 0,0 l/m 0 min 0 min 0 W/m 11,3 km/h (2 Bft) 100,00 %
06.01.2018 18:26 5,3 C 5,0 C 3,9 C 94 % 0 lf 1010,3 hPa 0,0 l/m 0 min 0 min 0 W/m 15,8 km/h (3 Bft) 97,87 %
06.01.2018 18:28 5,3 C 5,0 C 3,9 C 94 % 0 lf 1010,3 hPa 0,0 l/m 0 min 0 min 0 W/m 13,5 km/h (3 Bft) 95,74 %
06.01.2018 18:30 5,3 C 5,0 C 3,9 C 94 % 0 lf 1010,3 hPa 0,0 l/m 0 min 0 min 0 W/m 18,0 km/h (3 Bft) 100,00 %
06.01.2018 18:32 5,3 C 5,0 C 3,9 C 94 % 0 lf 1010,3 hPa 0,0 l/m 0 min 0 min 0 W/m 18,0 km/h (3 Bft) 100,00 %
06.01.2018 18:34 5,3 C 5,0 C 4,4 C 94 % 0 lf 1010,3 hPa 0,0 l/m 0 min 0 min 0 W/m 15,8 km/h (3 Bft) 97,87 %
06.01.2018 18:36 5,3 C 5,0 C 4,4 C 94 % 0 lf 1010,4 hPa 0,0 l/m 0 min 0 min 0 W/m 13,5 km/h (3 Bft) 100,00 %
06.01.2018 18:38 5,3 C 5,0 C 3,9 C 94 % 0 lf 1010,4 hPa 0,0 l/m 0 min 0 min 0 W/m 15,8 km/h (3 Bft) 97,87 %
06.01.2018 18:40 5,3 C 5,0 C 3,9 C 94 % 0 lf 1010,5 hPa 0,0 l/m 0 min 0 min 0 W/m 13,5 km/h (3 Bft) 100,00 %
06.01.2018 18:42 5,3 C 5,0 C 3,9 C 94 % 0 lf 1010,6 hPa 0,0 l/m 0 min 0 min 0 W/m 13,5 km/h (3 Bft) 100,00 %
06.01.2018 18:44 5,3 C 5,0 C 4,4 C 94 % 0 lf 1010,7 hPa 0,0 l/m 0 min 0 min 0 W/m 11,3 km/h (2 Bft) 100,00 %
06.01.2018 18:46 5,3 C 5,0 C 4,4 C 94 % 0 lf 1010,7 hPa 0,0 l/m 0 min 0 min 0 W/m 13,5 km/h (3 Bft) 97,83 %
06.01.2018 18:48 5,3 C 5,0 C 3,9 C 94 % 0 lf 1010,7 hPa 0,0 l/m 0 min 0 min 0 W/m 11,3 km/h (2 Bft) 95,74 %
06.01.2018 18:50 5,3 C 5,0 C 3,9 C 94 % 0 lf 1010,7 hPa 0,0 l/m 0 min 0 min 0 W/m 11,3 km/h (2 Bft) 100,00 %
06.01.2018 18:52 5,3 C 5,0 C 3,9 C 94 % 0 lf 1010,8 hPa 0,0 l/m 0 min 0 min 0 W/m 11,3 km/h (2 Bft) 97,87 %
06.01.2018 18:54 5,3 C 5,0 C 3,9 C 94 % 0 lf 1010,9 hPa 0,0 l/m 0 min 0 min 0 W/m 11,3 km/h (2 Bft) 97,87 %
06.01.2018 18:56 5,3 C 5,0 C 3,9 C 94 % 0 lf 1010,9 hPa 0,0 l/m 0 min 0 min 0 W/m 11,3 km/h (2 Bft) 95,74 %
06.01.2018 18:58 5,3 C 5,0 C 3,9 C 94 % 0 lf 1010,9 hPa 0,0 l/m 0 min 0 min 0 W/m 9,0 km/h (2 Bft) 97,83 %
06.01.2018 19:00 5,3 C 5,0 C 3,9 C 94 % 0 lf 1010,8 hPa 0,0 l/m 0 min 0 min 0 W/m 9,0 km/h (2 Bft) 97,87 %
06.01.2018 19:02 5,3 C 5,0 C 3,9 C 94 % 0 lf 1010,9 hPa 0,0 l/m 0 min 0 min 0 W/m 11,3 km/h (2 Bft) 97,87 %
06.01.2018 19:04 5,3 C 5,0 C 3,9 C 94 % 0 lf 1010,9 hPa 0,0 l/m 0 min 0 min 0 W/m 13,5 km/h (3 Bft) 97,87 %
06.01.2018 19:06 5,3 C 5,0 C 3,9 C 94 % 0 lf 1010,9 hPa 0,0 l/m 0 min 0 min 0 W/m 13,5 km/h (3 Bft) 95,74 %
06.01.2018 19:08 5,3 C 5,0 C 3,9 C 94 % 0 lf 1011,0 hPa 0,0 l/m 0 min 0 min 0 W/m 13,5 km/h (3 Bft) 97,87 %
06.01.2018 19:10 5,3 C 5,0 C 3,9 C 94 % 0 lf 1011,1 hPa 0,0 l/m 0 min 0 min 0 W/m 11,3 km/h (2 Bft) 93,48 %
06.01.2018 19:12 5,3 C 5,0 C 3,9 C 94 % 0 lf 1011,1 hPa 0,0 l/m 0 min 0 min 0 W/m 13,5 km/h (3 Bft) 97,87 %
06.01.2018 19:14 5,3 C 5,0 C 3,9 C 94 % 0 lf 1011,2 hPa 0,0 l/m 0 min 0 min 0 W/m 11,3 km/h (2 Bft) 97,87 %
06.01.2018 19:16 5,2 C 5,0 C 3,9 C 94 % 0 lf 1011,2 hPa 0,0 l/m 0 min 0 min 0 W/m 13,5 km/h (3 Bft) 97,87 %
06.01.2018 19:18 5,3 C 5,0 C 3,9 C 94 % 0 lf 1011,3 hPa 0,0 l/m 0 min 0 min 0 W/m 13,5 km/h (3 Bft) 97,87 %
06.01.2018 19:20 5,2 C 5,0 C 3,9 C 94 % 0 lf 1011,5 hPa 0,0 l/m 0 min 0 min 0 W/m 9,0 km/h (2 Bft) 95,74 %
06.01.2018 19:22 5,2 C 5,0 C 3,9 C 94 % 0 lf 1011,5 hPa 0,0 l/m 0 min 0 min 0 W/m 13,5 km/h (3 Bft) 97,83 %
06.01.2018 19:24 5,2 C 5,0 C 3,9 C 94 % 0 lf 1011,5 hPa 0,0 l/m 0 min 0 min 0 W/m 11,3 km/h (2 Bft) 97,87 %
06.01.2018 19:26 5,2 C 5,0 C 3,9 C 94 % 0 lf 1011,5 hPa 0,0 l/m 0 min 0 min 0 W/m 15,8 km/h (3 Bft) 97,87 %
06.01.2018 19:28 5,2 C 5,0 C 3,9 C 94 % 0 lf 1011,6 hPa 0,0 l/m 0 min 0 min 0 W/m 11,3 km/h (2 Bft) 95,74 %
06.01.2018 19:30 5,2 C 5,0 C 3,9 C 94 % 0 lf 1011,7 hPa 0,0 l/m 0 min 0 min 0 W/m 11,3 km/h (2 Bft) 95,74 %
06.01.2018 19:32 5,2 C 5,0 C 3,9 C 94 % 0 lf 1011,8 hPa 0,0 l/m 0 min 0 min 0 W/m 9,0 km/h (2 Bft) 97,87 %
06.01.2018 19:34 5,2 C 5,0 C 3,9 C 94 % 0 lf 1011,8 hPa 0,0 l/m 0 min 0 min 0 W/m 9,0 km/h (2 Bft) 100,00 %
06.01.2018 19:36 5,2 C 5,0 C 3,9 C 94 % 0 lf 1011,8 hPa 0,0 l/m 0 min 0 min 0 W/m 9,0 km/h (2 Bft) 97,87 %
06.01.2018 19:38 5,2 C 5,0 C 3,9 C 94 % 0 lf 1011,8 hPa 0,0 l/m 0 min 0 min 0 W/m 9,0 km/h (2 Bft) 95,74 %
06.01.2018 19:40 5,2 C 5,0 C 3,9 C 94 % 0 lf 1011,8 hPa 0,0 l/m 0 min 0 min 0 W/m 13,5 km/h (3 Bft) 95,74 %
06.01.2018 19:42 5,2 C 5,0 C 3,9 C 94 % 0 lf 1011,7 hPa 0,0 l/m 0 min 0 min 0 W/m 11,3 km/h (2 Bft) 95,74 %
06.01.2018 19:44 5,2 C 4,4 C 3,9 C 94 % 0 lf 1011,8 hPa 0,0 l/m 0 min 0 min 0 W/m 11,3 km/h (2 Bft) 97,83 %
06.01.2018 19:46 5,1 C 4,4 C 3,3 C 94 % 0 lf 1011,8 hPa 0,0 l/m 0 min 0 min 0 W/m 13,5 km/h (3 Bft) 93,62 %
06.01.2018 19:48 5,2 C 5,0 C 3,9 C 94 % 0 lf 1011,8 hPa 0,0 l/m 0 min 0 min 0 W/m 11,3 km/h (2 Bft) 93,62 %
06.01.2018 19:50 5,1 C 5,0 C 3,9 C 94 % 0 lf 1012,0 hPa 0,0 l/m 0 min 0 min 0 W/m 6,8 km/h (2 Bft) 93,62 %
06.01.2018 19:52 5,1 C 5,0 C 3,9 C 94 % 0 lf 1011,9 hPa 0,0 l/m 0 min 0 min 0 W/m 6,8 km/h (2 Bft) 93,62 %
06.01.2018 19:54 5,1 C 5,0 C 3,9 C 94 % 0 lf 1012,0 hPa 0,0 l/m 0 min 0 min 0 W/m 6,8 km/h (2 Bft) 93,62 %
06.01.2018 19:56 5,1 C 5,0 C 3,9 C 94 % 0 lf 1012,0 hPa 0,0 l/m 0 min 0 min 0 W/m 13,5 km/h (3 Bft) 91,30 %
06.01.2018 19:58 5,1 C 5,0 C 3,9 C 94 % 0 lf 1012,0 hPa 0,0 l/m 0 min 0 min 0 W/m 13,5 km/h (3 Bft) 91,49 %
06.01.2018 20:00 5,1 C 5,0 C 3,9 C 94 % 0 lf 1012,0 hPa 0,0 l/m 0 min 0 min 0 W/m 9,0 km/h (2 Bft) 91,49 %
06.01.2018 20:02 5,1 C 5,0 C 3,9 C 94 % 0 lf 1012,0 hPa 0,0 l/m 0 min 0 min 0 W/m 11,3 km/h (2 Bft) 91,43 %
06.01.2018 20:04 5,1 C 5,0 C 3,9 C 94 % 0 lf 1012,1 hPa 0,0 l/m 0 min 0 min 0 W/m 13,5 km/h (3 Bft) 93,62 %
06.01.2018 20:06 5,1 C 5,0 C 3,9 C 94 % 0 lf 1012,0 hPa 0,0 l/m 0 min 0 min 0 W/m 15,8 km/h (3 Bft) 93,62 %
06.01.2018 20:08 5,1 C 5,0 C 3,9 C 94 % 0 lf 1012,1 hPa 0,0 l/m 0 min 0 min 0 W/m 11,3 km/h (2 Bft) 91,49 %
06.01.2018 20:10 5,1 C 4,4 C 3,9 C 94 % 0 lf 1012,1 hPa 0,0 l/m 0 min 0 min 0 W/m 11,3 km/h (2 Bft) 91,49 %
06.01.2018 20:12 5,1 C 5,0 C 3,9 C 94 % 0 lf 1012,1 hPa 0,0 l/m 0 min 0 min 0 W/m 15,8 km/h (3 Bft) 93,48 %
06.01.2018 20:14 5,1 C 5,0 C 3,9 C 94 % 0 lf 1012,1 hPa 0,0 l/m 0 min 0 min 0 W/m 11,3 km/h (2 Bft) 89,36 %
06.01.2018 20:16 5,1 C 4,4 C 3,9 C 94 % 0 lf 1012,2 hPa 0,0 l/m 0 min 0 min 0 W/m 9,0 km/h (2 Bft) 91,49 %
06.01.2018 20:18 5,1 C 5,0 C 3,9 C 94 % 0 lf 1012,2 hPa 0,0 l/m 0 min 0 min 0 W/m 9,0 km/h (2 Bft) 95,74 %
06.01.2018 20:20 5,1 C 5,0 C 3,9 C 94 % 0 lf 1012,2 hPa 0,0 l/m 0 min 0 min 0 W/m 11,3 km/h (2 Bft) 94,83 %
06.01.2018 20:22 5,1 C 5,0 C 3,9 C 94 % 0 lf 1012,3 hPa 0,0 l/m 0 min 0 min 0 W/m 13,5 km/h (3 Bft) 95,74 %
06.01.2018 20:24 5,1 C 5,0 C 3,9 C 94 % 0 lf 1012,4 hPa 0,0 l/m 0 min 0 min 0 W/m 11,3 km/h (2 Bft) 94,29 %
06.01.2018 20:26 5,1 C 5,0 C 3,9 C 94 % 0 lf 1012,6 hPa 0,0 l/m 0 min 0 min 0 W/m 11,3 km/h (2 Bft) 89,36 %
06.01.2018 20:28 5,1 C 5,0 C 3,9 C 94 % 0 lf 1012,6 hPa 0,0 l/m 0 min 0 min 0 W/m 11,3 km/h (2 Bft) 97,87 %
06.01.2018 20:30 5,1 C 5,0 C 3,9 C 94 % 0 lf 1012,6 hPa 0,0 l/m 0 min 0 min 0 W/m 9,0 km/h (2 Bft) 97,87 %
06.01.2018 20:32 5,1 C 5,0 C 3,9 C 94 % 0 lf 1012,6 hPa 0,0 l/m 0 min 0 min 0 W/m 11,3 km/h (2 Bft) 95,74 %
06.01.2018 20:34 5,1 C 5,0 C 3,9 C 94 % 0 lf 1012,7 hPa 0,0 l/m 0 min 0 min 0 W/m 13,5 km/h (3 Bft) 97,87 %
06.01.2018 20:36 5,1 C 5,0 C 3,9 C 94 % 0 lf 1012,8 hPa 0,0 l/m 0 min 0 min 0 W/m 13,5 km/h (3 Bft) 95,65 %
06.01.2018 20:38 5,1 C 5,0 C 3,9 C 94 % 0 lf 1012,8 hPa 0,0 l/m 0 min 0 min 0 W/m 13,5 km/h (3 Bft) 95,74 %
06.01.2018 20:40 5,1 C 5,0 C 3,9 C 94 % 0 lf 1012,8 hPa 0,0 l/m 0 min 0 min 0 W/m 11,3 km/h (2 Bft) 97,87 %
06.01.2018 20:42 5,1 C 5,0 C 3,9 C 94 % 0 lf 1012,8 hPa 0,0 l/m 0 min 0 min 0 W/m 11,3 km/h (2 Bft) 95,74 %
06.01.2018 20:44 5,2 C 5,0 C 3,9 C 94 % 0 lf 1012,8 hPa 0,0 l/m 0 min 0 min 0 W/m 15,8 km/h (3 Bft) 95,74 %
06.01.2018 20:46 5,2 C 5,0 C 3,9 C 94 % 0 lf 1012,8 hPa 0,0 l/m 0 min 0 min 0 W/m 15,8 km/h (3 Bft) 95,74 %
06.01.2018 20:48 5,2 C 5,0 C 3,9 C 94 % 0 lf 1012,9 hPa 0,0 l/m 0 min 0 min 0 W/m 11,3 km/h (2 Bft) 95,65 %
06.01.2018 20:50 5,2 C 5,0 C 3,9 C 94 % 0 lf 1012,9 hPa 0,0 l/m 0 min 0 min 0 W/m 9,0 km/h (2 Bft) 96,61 %
06.01.2018 20:52 5,2 C 5,0 C 3,9 C 94 % 0 lf 1013,0 hPa 0,0 l/m 0 min 0 min 0 W/m 15,8 km/h (3 Bft) 97,87 %
06.01.2018 20:54 5,2 C 5,0 C 3,9 C 94 % 0 lf 1013,0 hPa 0,0 l/m 0 min 0 min 0 W/m 15,8 km/h (3 Bft) 100,00 %
06.01.2018 20:56 5,2 C 5,0 C 3,9 C 94 % 0 lf 1013,0 hPa 0,0 l/m 0 min 0 min 0 W/m 15,8 km/h (3 Bft) 100,00 %
06.01.2018 20:58 5,2 C 5,0 C 3,9 C 94 % 1 lf 1013,0 hPa 0,0 l/m 0 min 0 min 0 W/m 13,5 km/h (3 Bft) 100,00 %
06.01.2018 21:00 5,2 C 5,0 C 3,9 C 94 % 0 lf 1013,0 hPa 0,0 l/m 0 min 0 min 0 W/m 13,5 km/h (3 Bft) 100,00 %
06.01.2018 21:02 5,2 C 5,0 C 3,9 C 94 % 2 lf 1013,0 hPa 0,0 l/m 0 min 0 min 0 W/m 11,3 km/h (2 Bft) 100,00 %
06.01.2018 21:04 5,2 C 5,0 C 3,9 C 94 % 2 lf 1013,0 hPa 0,0 l/m 0 min 0 min 0 W/m 13,5 km/h (3 Bft) 97,87 %
06.01.2018 21:06 5,2 C 5,0 C 3,9 C 94 % 2 lf 1013,0 hPa 0,0 l/m 0 min 0 min 0 W/m 13,5 km/h (3 Bft) 95,74 %
06.01.2018 21:08 5,2 C 5,0 C 3,9 C 94 % 2 lf 1013,0 hPa 0,0 l/m 0 min 0 min 0 W/m 15,8 km/h (3 Bft) 100,00 %
06.01.2018 21:10 5,2 C 5,0 C 3,9 C 94 % 2 lf 1013,1 hPa 0,0 l/m 0 min 0 min 0 W/m 13,5 km/h (3 Bft) 100,00 %
06.01.2018 21:12 5,2 C 5,0 C 3,9 C 94 % 1 lf 1013,1 hPa 0,0 l/m 0 min 0 min 0 W/m 18,0 km/h (3 Bft) 100,00 %
06.01.2018 21:14 5,2 C 5,0 C 3,9 C 94 % 1 lf 1013,1 hPa 0,0 l/m 0 min 0 min 0 W/m 15,8 km/h (3 Bft) 100,00 %
06.01.2018 21:16 5,2 C 5,0 C 3,9 C 94 % 1 lf 1013,1 hPa 0,0 l/m 0 min 0 min 0 W/m 15,8 km/h (3 Bft) 95,74 %
06.01.2018 21:18 5,2 C 5,0 C 3,9 C 94 % 1 lf 1013,1 hPa 0,0 l/m 0 min 0 min 0 W/m 13,5 km/h (3 Bft) 97,87 %
06.01.2018 21:20 5,2 C 5,0 C 3,9 C 94 % 1 lf 1013,2 hPa 0,0 l/m 0 min 0 min 0 W/m 13,5 km/h (3 Bft) 100,00 %
06.01.2018 21:22 5,2 C 5,0 C 3,9 C 94 % 1 lf 1013,2 hPa 0,0 l/m 0 min 0 min 0 W/m 15,8 km/h (3 Bft) 97,14 %
06.01.2018 21:24 5,2 C 5,0 C 3,9 C 94 % 1 lf 1013,2 hPa 0,0 l/m 0 min 0 min 0 W/m 15,8 km/h (3 Bft) 100,00 %
06.01.2018 21:26 5,2 C 5,0 C 3,9 C 94 % 1 lf 1013,3 hPa 0,0 l/m 0 min 0 min 0 W/m 18,0 km/h (3 Bft) 100,00 %
06.01.2018 21:28 5,2 C 5,0 C 3,9 C 94 % 0 lf 1013,4 hPa 0,0 l/m 0 min 0 min 0 W/m 15,8 km/h (3 Bft) 97,87 %
06.01.2018 21:30 5,3 C 5,0 C 3,9 C 94 % 0 lf 1013,4 hPa 0,0 l/m 0 min 0 min 0 W/m 15,8 km/h (3 Bft) 97,87 %
06.01.2018 21:32 5,3 C 5,0 C 3,9 C 94 % 0 lf 1013,4 hPa 0,0 l/m 0 min 0 min 0 W/m 15,8 km/h (3 Bft) 95,74 %
06.01.2018 21:34 5,3 C 5,0 C 3,9 C 94 % 0 lf 1013,5 hPa 0,0 l/m 0 min 0 min 0 W/m 15,8 km/h (3 Bft) 97,83 %
06.01.2018 21:36 5,3 C 5,0 C 3,9 C 94 % 0 lf 1013,5 hPa 0,0 l/m 0 min 0 min 0 W/m 18,0 km/h (3 Bft) 95,74 %
06.01.2018 21:38 5,3 C 5,0 C 3,9 C 94 % 0 lf 1013,5 hPa 0,0 l/m 0 min 0 min 0 W/m 13,5 km/h (3 Bft) 97,87 %
06.01.2018 21:40 5,3 C 5,0 C 3,9 C 94 % 0 lf 1013,4 hPa 0,0 l/m 0 min 0 min 0 W/m 15,8 km/h (3 Bft) 89,36 %
06.01.2018 21:42 5,3 C 5,0 C 3,9 C 94 % 0 lf 1013,5 hPa 0,0 l/m 0 min 0 min 0 W/m 18,0 km/h (3 Bft) 95,74 %
06.01.2018 21:44 5,2 C 5,0 C 3,9 C 94 % 0 lf 1013,6 hPa 0,0 l/m 0 min 0 min 0 W/m 18,0 km/h (3 Bft) 93,62 %
06.01.2018 21:46 5,2 C 5,0 C 3,9 C 94 % 0 lf 1013,6 hPa 0,0 l/m 0 min 0 min 0 W/m 18,0 km/h (3 Bft) 95,65 %
06.01.2018 21:48 5,2 C 5,0 C 3,9 C 94 % 0 lf 1013,7 hPa 0,0 l/m 0 min 0 min 0 W/m 18,0 km/h (3 Bft) 91,49 %
06.01.2018 21:50 5,2 C 5,0 C 3,9 C 94 % 0 lf 1013,7 hPa 0,0 l/m 0 min 0 min 0 W/m 22,5 km/h (4 Bft) 91,53 %
06.01.2018 21:52 5,2 C 5,0 C 3,9 C 94 % 0 lf 1013,7 hPa 0,0 l/m 0 min 0 min 0 W/m 13,5 km/h (3 Bft) 94,29 %
06.01.2018 21:54 5,2 C 5,0 C 3,9 C 94 % 0 lf 1013,7 hPa 0,0 l/m 0 min 0 min 0 W/m 20,3 km/h (4 Bft) 93,62 %
06.01.2018 21:56 5,2 C 5,0 C 3,9 C 94 % 0 lf 1013,8 hPa 0,0 l/m 0 min 0 min 0 W/m 13,5 km/h (3 Bft) 95,74 %
06.01.2018 21:58 5,2 C 5,0 C 3,9 C 94 % 0 lf 1013,8 hPa 0,0 l/m 0 min 0 min 0 W/m 15,8 km/h (3 Bft) 95,65 %
06.01.2018 22:00 5,2 C 5,0 C 3,9 C 94 % 0 lf 1013,8 hPa 0,0 l/m 0 min 0 min 0 W/m 20,3 km/h (4 Bft) 95,74 %
06.01.2018 22:02 5,2 C 5,0 C 3,9 C 94 % 0 lf 1013,9 hPa 0,0 l/m 0 min 0 min 0 W/m 15,8 km/h (3 Bft) 93,62 %
06.01.2018 22:04 5,2 C 5,0 C 3,9 C 94 % 0 lf 1013,9 hPa 0,0 l/m 0 min 0 min 0 W/m 18,0 km/h (3 Bft) 95,74 %
06.01.2018 22:06 5,2 C 5,0 C 3,9 C 94 % 0 lf 1014,0 hPa 0,0 l/m 0 min 0 min 0 W/m 13,5 km/h (3 Bft) 93,62 %
06.01.2018 22:08 5,2 C 5,0 C 3,9 C 94 % 0 lf 1014,0 hPa 0,0 l/m 0 min 0 min 0 W/m 15,8 km/h (3 Bft) 93,62 %
06.01.2018 22:10 5,2 C 5,0 C 3,9 C 94 % 0 lf 1014,0 hPa 0,0 l/m 0 min 0 min 0 W/m 15,8 km/h (3 Bft) 95,65 %
06.01.2018 22:12 5,2 C 5,0 C 3,9 C 94 % 0 lf 1014,0 hPa 0,0 l/m 0 min 0 min 0 W/m 18,0 km/h (3 Bft) 91,49 %
06.01.2018 22:14 5,2 C 5,0 C 3,9 C 94 % 0 lf 1014,0 hPa 0,0 l/m 0 min 0 min 0 W/m 18,0 km/h (3 Bft) 93,62 %
06.01.2018 22:16 5,2 C 5,0 C 3,9 C 94 % 0 lf 1014,0 hPa 0,0 l/m 0 min 0 min 0 W/m 9,0 km/h (2 Bft) 95,74 %
06.01.2018 22:18 5,2 C 5,0 C 3,9 C 94 % 0 lf 1014,0 hPa 0,0 l/m 0 min 0 min 0 W/m 18,0 km/h (3 Bft) 95,74 %
06.01.2018 22:20 5,2 C 5,0 C 3,9 C 94 % 0 lf 1014,1 hPa 0,0 l/m 0 min 0 min 0 W/m 22,5 km/h (4 Bft) 98,28 %
06.01.2018 22:22 5,2 C 5,0 C 3,9 C 94 % 0 lf 1014,1 hPa 0,0 l/m 0 min 0 min 0 W/m 18,0 km/h (3 Bft) 94,29 %
06.01.2018 22:24 5,2 C 5,0 C 3,9 C 94 % 0 lf 1014,0 hPa 0,0 l/m 0 min 0 min 0 W/m 18,0 km/h (3 Bft) 95,74 %
06.01.2018 22:26 5,2 C 5,0 C 3,9 C 94 % 0 lf 1014,0 hPa 0,0 l/m 0 min 0 min 0 W/m 24,8 km/h (4 Bft) 97,87 %
06.01.2018 22:28 5,2 C 5,0 C 3,9 C 94 % 0 lf 1014,0 hPa 0,0 l/m 0 min 0 min 0 W/m 11,3 km/h (2 Bft) 97,87 %
06.01.2018 22:30 5,2 C 5,0 C 3,9 C 94 % 0 lf 1014,0 hPa 0,0 l/m 0 min 0 min 0 W/m 22,5 km/h (4 Bft) 95,74 %
06.01.2018 22:32 5,2 C 5,0 C 3,9 C 94 % 0 lf 1014,0 hPa 0,0 l/m 0 min 0 min 0 W/m 20,3 km/h (4 Bft) 95,65 %
06.01.2018 22:34 5,2 C 5,0 C 3,9 C 94 % 0 lf 1014,1 hPa 0,0 l/m 0 min 0 min 0 W/m 13,5 km/h (3 Bft) 97,87 %
06.01.2018 22:36 5,2 C 5,0 C 3,9 C 94 % 0 lf 1014,2 hPa 0,0 l/m 0 min 0 min 0 W/m 18,0 km/h (3 Bft) 97,87 %
06.01.2018 22:38 5,2 C 5,0 C 3,9 C 94 % 0 lf 1014,2 hPa 0,0 l/m 0 min 0 min 0 W/m 20,3 km/h (4 Bft) 95,74 %
06.01.2018 22:40 5,2 C 5,0 C 3,9 C 94 % 0 lf 1014,2 hPa 0,0 l/m 0 min 0 min 0 W/m 15,8 km/h (3 Bft) 95,74 %
06.01.2018 22:42 5,2 C 5,0 C 3,9 C 94 % 0 lf 1014,2 hPa 0,0 l/m 0 min 0 min 0 W/m 15,8 km/h (3 Bft) 95,74 %
06.01.2018 22:44 5,2 C 5,0 C 3,9 C 94 % 0 lf 1014,2 hPa 0,0 l/m 0 min 0 min 0 W/m 11,3 km/h (2 Bft) 97,83 %
06.01.2018 22:46 5,2 C 5,0 C 3,9 C 95 % 0 lf 1014,3 hPa 0,0 l/m 0 min 0 min 0 W/m 15,8 km/h (3 Bft) 97,87 %
06.01.2018 22:48 5,2 C 5,0 C 3,9 C 94 % 0 lf 1014,4 hPa 0,0 l/m 0 min 0 min 0 W/m 18,0 km/h (3 Bft) 95,74 %
06.01.2018 22:50 5,2 C 5,0 C 3,9 C 95 % 0 lf 1014,4 hPa 0,0 l/m 0 min 0 min 0 W/m 13,5 km/h (3 Bft) 98,31 %
06.01.2018 22:52 5,2 C 5,0 C 3,9 C 95 % 0 lf 1014,4 hPa 0,0 l/m 0 min 0 min 0 W/m 15,8 km/h (3 Bft) 97,14 %
06.01.2018 22:54 5,2 C 5,0 C 3,9 C 95 % 0 lf 1014,4 hPa 0,0 l/m 0 min 0 min 0 W/m 22,5 km/h (4 Bft) 95,74 %
06.01.2018 22:56 5,2 C 5,0 C 3,9 C 95 % 0 lf 1014,4 hPa 0,0 l/m 0 min 0 min 0 W/m 20,3 km/h (4 Bft) 97,83 %
06.01.2018 22:58 5,2 C 5,0 C 3,9 C 95 % 0 lf 1014,4 hPa 0,0 l/m 0 min 0 min 0 W/m 13,5 km/h (3 Bft) 97,87 %
06.01.2018 23:00 5,2 C 5,0 C 3,9 C 95 % 0 lf 1014,5 hPa 0,0 l/m 0 min 0 min 0 W/m 15,8 km/h (3 Bft) 95,74 %
06.01.2018 23:02 5,2 C 5,0 C 3,9 C 95 % 1 lf 1014,5 hPa 0,0 l/m 0 min 0 min 0 W/m 22,5 km/h (4 Bft) 95,74 %
06.01.2018 23:04 5,2 C 5,0 C 3,9 C 95 % 0 lf 1014,5 hPa 0,0 l/m 0 min 0 min 0 W/m 31,5 km/h (5 Bft) 97,87 %
06.01.2018 23:06 5,2 C 5,0 C 3,9 C 95 % 0 lf 1014,5 hPa 0,0 l/m 0 min 0 min 0 W/m 15,8 km/h (3 Bft) 97,87 %
06.01.2018 23:08 5,2 C 5,0 C 3,9 C 95 % 0 lf 1014,6 hPa 0,0 l/m 0 min 0 min 0 W/m 18,0 km/h (3 Bft) 100,00 %
06.01.2018 23:10 5,2 C 5,0 C 3,9 C 94 % 0 lf 1014,6 hPa 0,0 l/m 0 min 0 min 0 W/m 15,8 km/h (3 Bft) 100,00 %
06.01.2018 23:12 5,2 C 5,0 C 3,9 C 94 % 0 lf 1014,7 hPa 0,0 l/m 0 min 0 min 0 W/m 27,0 km/h (4 Bft) 97,87 %
06.01.2018 23:14 5,2 C 5,0 C 4,4 C 94 % 0 lf 1014,8 hPa 0,0 l/m 0 min 0 min 0 W/m 22,5 km/h (4 Bft) 100,00 %
06.01.2018 23:16 5,2 C 5,6 C 3,9 C 94 % 0 lf 1014,8 hPa 0,0 l/m 0 min 0 min 0 W/m 20,3 km/h (4 Bft) 97,87 %
06.01.2018 23:18 5,2 C 5,0 C 3,9 C 94 % 0 lf 1014,9 hPa 0,0 l/m 0 min 0 min 0 W/m 15,8 km/h (3 Bft) 100,00 %
06.01.2018 23:20 5,2 C 5,0 C 4,4 C 94 % 0 lf 1014,9 hPa 0,0 l/m 0 min 0 min 0 W/m 15,8 km/h (3 Bft) 96,61 %
06.01.2018 23:22 5,2 C 5,6 C 4,4 C 95 % 0 lf 1014,9 hPa 0,0 l/m 0 min 0 min 0 W/m 18,0 km/h (3 Bft) 97,14 %
06.01.2018 23:24 5,2 C 5,6 C 4,4 C 95 % 0 lf 1015,0 hPa 0,0 l/m 0 min 0 min 0 W/m 13,5 km/h (3 Bft) 100,00 %
06.01.2018 23:26 5,2 C 5,6 C 4,4 C 95 % 0 lf 1015,0 hPa 0,0 l/m 0 min 0 min 0 W/m 18,0 km/h (3 Bft) 100,00 %
06.01.2018 23:28 5,2 C 5,6 C 4,4 C 95 % 0 lf 1014,9 hPa 0,0 l/m 0 min 0 min 0 W/m 22,5 km/h (4 Bft) 93,62 %
06.01.2018 23:30 5,2 C 5,6 C 4,4 C 94 % 0 lf 1015,0 hPa 0,0 l/m 0 min 0 min 0 W/m 22,5 km/h (4 Bft) 100,00 %
06.01.2018 23:32 5,2 C 5,6 C 4,4 C 94 % 0 lf 1015,0 hPa 0,0 l/m 0 min 0 min 0 W/m 27,0 km/h (4 Bft) 100,00 %
06.01.2018 23:34 5,3 C 5,6 C 4,4 C 94 % 0 lf 1015,0 hPa 0,0 l/m 0 min 0 min 0 W/m 18,0 km/h (3 Bft) 100,00 %
06.01.2018 23:36 5,3 C 5,6 C 4,4 C 94 % 0 lf 1015,0 hPa 0,0 l/m 0 min 0 min 0 W/m 15,8 km/h (3 Bft) 100,00 %
06.01.2018 23:38 5,3 C 5,6 C 4,4 C 94 % 0 lf 1015,0 hPa 0,0 l/m 0 min 0 min 0 W/m 27,0 km/h (4 Bft) 97,87 %
06.01.2018 23:40 5,3 C 5,6 C 4,4 C 94 % 0 lf 1015,1 hPa 0,0 l/m 0 min 0 min 0 W/m 27,0 km/h (4 Bft) 93,62 %
06.01.2018 23:42 5,3 C 5,6 C 4,4 C 94 % 0 lf 1015,1 hPa 0,0 l/m 0 min 0 min 0 W/m 24,8 km/h (4 Bft) 95,65 %
06.01.2018 23:44 5,3 C 5,6 C 4,4 C 94 % 0 lf 1015,1 hPa 0,0 l/m 0 min 0 min 0 W/m 24,8 km/h (4 Bft) 95,74 %
06.01.2018 23:46 5,3 C 5,6 C 4,4 C 94 % 0 lf 1015,0 hPa 0,0 l/m 0 min 0 min 0 W/m 29,3 km/h (5 Bft) 95,74 %
06.01.2018 23:48 5,3 C 5,6 C 4,4 C 94 % 0 lf 1015,2 hPa 0,0 l/m 0 min 0 min 0 W/m 20,3 km/h (4 Bft) 93,62 %
06.01.2018 23:50 5,3 C 5,6 C 4,4 C 94 % 0 lf 1015,1 hPa 0,0 l/m 0 min 0 min 0 W/m 24,8 km/h (4 Bft) 96,55 %
06.01.2018 23:52 5,3 C 5,6 C 4,4 C 94 % 0 lf 1015,1 hPa 0,0 l/m 0 min 0 min 0 W/m 24,8 km/h (4 Bft) 93,62 %
06.01.2018 23:54 5,3 C 5,6 C 4,4 C 94 % 0 lf 1015,1 hPa 0,0 l/m 0 min 0 min 0 W/m 22,5 km/h (4 Bft) 91,43 %
06.01.2018 23:56 5,3 C 5,6 C 4,4 C 94 % 0 lf 1015,2 hPa 0,0 l/m 0 min 0 min 0 W/m 18,0 km/h (3 Bft) 91,49 %
06.01.2018 23:58 5,3 C 5,6 C 4,4 C 94 % 0 lf 1015,2 hPa 0,0 l/m 0 min 0 min 0 W/m 18,0 km/h (3 Bft) 95,74 %
_ Min-Zeit 09:16 08:20 08:20 00:00 00:00 00:00 - - - - 07:36 16:16
Minimum _ 1,9 C 0,6 C -0,6 C 90 % 0 lf 1001,0 hPa - - - - 0,0 km/h (0 Bft) 87,23 %
_ Max-Zeit 15:16 14:08 13:04 10:56 08:58 23:48 00:00 00:00 00:00 13:02 23:04 00:04
Maximum _ 6,2 C 7,2 C 6,1 C 96 % 2 lf 1015,2 hPa 0,0 l/m 0 min 0 min 115 W/m 31,5 km/h
O-NO (5 Bft)
100,00 %
Durchschnitt _ 4,5 C 4,5 C 3,1 C 94 % 0 lf 1007,0 hPa #0,0 l/m #0 min. #0 min. 58 W/m 8,5 km/h (2 Bft) 96,42 %
© 2018 W. Hausmann